[{"header": {"dx": 0.06612293990616946, "dy": 0.0552356325346848, "nx": 98, "ny": 59, "la1": 35.046912555036876, "la2": 31.78801023549047, "lo1": -121.43107172385933, "lo2": -114.95102361305473, "refTime": "2026041801", "parameterCategory": 1, "parameterNumber": 2}, "data": [11.71, 11.13, 10.83, 10.98, 10.68, 10.75, 10.75, 11.14, 11.14, 11.54, 11.69, 11.21, 12.9, 12.14, 11.28, 11.09, 11.18, 11.18, 11.62, 12.52, 12.52, 12.96, 11.62, 11.18, 11.18, 11.57, 12.27, 9.09, 1.58, -1.58, -1.64, 0.0, 0.0, 0.0, 1.76, 2.82, 2.82, 3.87, 4.66, 6.3, 6.4, 7.27, 9.67, 11.16, 13.58, 15.99, 19.48, 20.13, 16.27, 13.99, 14.31, 14.75, 15.18, 15.25, 15.68, 15.58, 15.27, 13.97, 13.76, 14.79, 14.39, 14.84, 14.84, 13.59, 13.99, 13.99, 16.09, 16.54, 16.54, 16.54, 17.64, 17.35, 14.79, 14.75, 14.75, 14.75, 0.0, 0.0, 0.0, 3.58, 3.58, 5.31, 6.9, 7.82, 9.42, 9.82, 10.48, 10.4, 10.62, 10.16, 11.72, 13.29, 14.79, 15.59, 15.59, 11.7, 6.8, 0.0, 11.42, 11.13, 10.83, 10.98, 10.68, 10.37, 10.75, 10.75, 11.14, 11.17, 10.99, 12.0, 11.75, 11.44, 12.3, 11.46, 10.62, 11.91, 12.52, 11.06, 13.41, 12.96, 12.96, 12.07, 10.66, 10.91, 10.28, 9.2, 4.8, 0.0, -1.96, 0.0, 0.0, 0.0, 1.69, 2.97, 2.21, 3.35, 3.35, 5.1, 6.76, 8.22, 10.3, 11.36, 14.46, 17.11, 19.31, 16.39, 13.2, 13.86, 14.28, 14.7, 15.18, 14.53, 15.25, 15.65, 15.18, 14.38, 14.39, 15.27, 14.84, 14.99, 14.99, 14.9, 14.42, 15.65, 16.09, 16.54, 16.54, 16.99, 18.33, 18.78, 16.54, 14.3, 14.3, 10.43, 0.0, 0.0, 0.0, 3.58, 3.58, 5.31, 6.9, 7.82, 9.42, 9.82, 10.48, 10.4, 10.62, 10.16, 11.72, 13.29, 14.79, 15.59, 15.59, 11.7, 6.8, 0.0, 11.42, 11.13, 10.83, 10.98, 10.68, 10.37, 10.75, 10.75, 11.14, 10.75, 10.58, 9.64, 11.09, 10.99, 11.03, 10.84, 10.84, 10.41, 11.71, 12.79, 11.28, 12.35, 12.27, 13.41, 13.86, 10.41, 9.21, 8.99, 7.27, 1.39, 0.0, 0.0, 0.0, 0.0, 1.32, 1.84, 2.33, 3.14, 3.3, 5.2, 6.7, 8.66, 11.7, 13.28, 15.22, 15.18, 14.33, 13.02, 13.43, 14.28, 14.7, 14.7, 14.84, 14.7, 14.51, 15.2, 14.61, 14.61, 15.04, 14.84, 15.43, 15.2, 14.75, 14.75, 14.75, 15.65, 16.09, 15.61, 16.22, 17.1, 18.33, 18.33, 16.09, 10.12, 10.12, 10.43, 6.8, 0.0, 0.0, 3.58, 3.58, 5.31, 6.9, 7.82, 7.44, 9.46, 9.86, 9.86, 10.16, 10.55, 13.68, 14.46, 14.71, 14.65, 13.7, 13.99, 6.8, 0.0, 10.99, 11.13, 10.83, 10.98, 10.68, 10.37, 11.06, 11.06, 11.06, 10.75, 9.62, 8.97, 10.12, 10.61, 10.8, 10.4, 10.88, 10.88, 11.03, 11.03, 10.84, 11.02, 11.02, 10.84, 11.28, 12.79, 9.86, 8.4, 7.15, 4.4, 0.0, 0.0, 0.0, 3.16, 2.81, 4.48, 4.32, 3.39, 4.54, 5.8, 7.06, 9.73, 11.36, 10.75, 10.47, 11.35, 12.27, 12.79, 13.7, 14.28, 14.42, 14.7, 14.28, 14.56, 15.2, 14.6, 14.18, 14.61, 15.49, 15.49, 15.2, 15.2, 14.75, 14.75, 14.75, 14.75, 15.65, 16.09, 16.22, 17.97, 19.08, 18.65, 15.59, 6.4, 6.2, 10.12, 7.93, 4.81, 0.0, 2.89, 5.15, 5.15, 4.1, 5.4, 6.45, 7.15, 8.82, 9.3, 9.3, 13.68, 15.63, 15.52, 14.3, 13.99, 12.89, 13.59, 12.79, 0.0, 10.99, 11.13, 10.83, 10.54, 10.68, 10.37, 10.68, 11.06, 11.06, 10.27, 9.06, 8.38, 9.8, 10.19, 9.82, 10.24, 10.16, 10.4, 10.62, 10.62, 11.2, 11.87, 10.79, 11.03, 9.63, 11.45, 12.45, 10.73, 7.9, 5.9, 3.39, 1.23, 1.39, 3.04, 5.31, 5.48, 5.81, 6.2, 4.74, 6.02, 7.28, 7.43, 9.17, 10.09, 10.59, 11.88, 12.79, 13.19, 13.84, 14.28, 14.28, 13.86, 13.86, 14.4, 15.2, 15.2, 14.6, 15.05, 15.05, 15.2, 14.75, 14.75, 14.3, 14.31, 14.31, 15.18, 16.09, 15.65, 16.05, 18.65, 19.99, 19.99, 10.91, 6.08, 5.23, 5.8, 7.69, 7.93, 2.98, 2.35, 2.2, 4.1, 5.6, 5.2, 4.23, 6.76, 7.85, 8.85, 12.45, 14.66, 14.78, 14.71, 14.3, 11.87, 12.66, 13.31, 13.44, 6.4, 10.99, 10.71, 11.13, 10.83, 10.68, 10.68, 10.68, 11.06, 10.65, 10.27, 9.06, 7.43, 8.73, 10.19, 10.48, 9.86, 9.86, 10.24, 9.3, 10.04, 10.24, 9.86, 10.12, 10.37, 9.66, 8.22, 8.53, 8.85, 8.1, 6.94, 3.81, 2.83, 3.45, 5.0, 6.4, 6.2, 5.46, 6.63, 5.92, 4.24, 4.12, 7.69, 9.02, 11.09, 12.11, 12.5, 13.48, 14.13, 14.47, 14.07, 14.07, 14.07, 14.03, 14.22, 14.75, 14.75, 14.75, 14.75, 14.75, 14.75, 14.3, 13.86, 13.44, 13.88, 15.61, 16.22, 16.99, 15.65, 15.61, 17.53, 20.34, 21.19, 16.75, 4.88, 4.66, 4.23, 5.8, 6.0, 6.2, 0.0, 2.06, 3.82, 4.75, 4.75, 4.08, 6.63, 8.58, 10.73, 12.8, 14.26, 12.9, 14.78, 12.25, 12.3, 12.72, 13.09, 13.23, 9.8, 10.99, 10.71, 10.71, 10.83, 10.98, 10.68, 10.68, 10.68, 10.65, 9.82, 8.41, 7.43, 8.73, 10.61, 10.79, 9.86, 10.24, 10.61, 10.04, 9.53, 9.89, 10.79, 11.09, 10.65, 9.17, 8.22, 6.44, 6.21, 4.48, 5.32, 4.23, 3.63, 4.34, 5.63, 7.36, 7.78, 6.65, 4.65, 2.19, 1.02, 1.71, 2.54, 8.58, 13.59, 15.65, 14.75, 15.55, 15.57, 14.03, 14.19, 13.96, 14.07, 14.68, 14.3, 14.3, 14.3, 14.3, 14.3, 14.3, 14.3, 13.41, 13.41, 13.44, 15.18, 15.78, 16.22, 16.54, 15.2, 14.9, 15.78, 18.41, 19.51, 18.4, 12.34, 3.59, 3.42, 2.98, 4.65, 4.81, 4.38, 1.77, 3.68, 5.46, 5.34, 7.2, 8.47, 10.19, 10.42, 11.43, 11.93, 12.33, 11.1, 11.37, 11.99, 11.99, 12.3, 12.46, 11.16, 10.99, 10.71, 10.71, 10.89, 10.6, 10.3, 10.68, 10.25, 10.18, 9.27, 7.93, 5.99, 7.54, 9.84, 11.16, 9.67, 10.41, 11.99, 10.73, 10.94, 11.2, 11.39, 12.21, 12.62, 13.07, 11.6, 10.73, 11.2, 10.6, 7.9, 4.4, 4.23, 5.32, 8.38, 9.7, 10.46, 10.48, 10.4, 12.07, 0.0, 0.0, 12.07, 11.6, 9.8, 10.43, 13.76, 13.39, 14.13, 13.34, 13.29, 11.6, 12.2, 13.39, 14.07, 14.3, 14.16, 13.72, 13.67, 13.23, 13.41, 12.52, 12.52, 15.2, 15.65, 15.34, 16.22, 16.31, 15.2, 14.75, 15.2, 15.87, 18.52, 18.96, 15.59, 6.8, 0.0, 0.0, 2.72, 6.9, 4.66, 2.34, 3.79, 5.49, 7.2, 7.08, 9.34, 10.66, 11.43, 10.65, 10.13, 8.85, 9.17, 10.18, 10.91, 10.99, 10.8, 11.92, 11.99, 10.71, 10.71, 10.71, 10.89, 10.6, 10.3, 10.3, 10.25, 10.18, 9.27, 7.5, 5.43, 7.32, 8.05, 9.48, 9.17, 9.48, 11.16, 10.79, 10.94, 10.41, 11.26, 11.6, 13.44, 11.76, 11.28, 10.18, 10.73, 12.07, 11.18, 9.97, 8.05, 9.8, 11.99, 10.73, 10.05, 11.91, 11.87, 5.8, 8.85, 10.04, 8.85, 8.85, 9.48, 10.99, 10.94, 13.46, 14.78, 14.29, 13.9, 13.99, 12.18, 12.87, 13.94, 14.3, 13.75, 12.72, 12.35, 12.35, 12.35, 11.62, 14.75, 15.2, 15.65, 15.65, 16.54, 16.99, 15.65, 14.3, 14.3, 14.75, 16.37, 18.52, 15.87, 10.12, 0.0, 0.0, 2.13, 4.52, 5.09, 2.87, 1.89, 5.34, 6.8, 7.2, 8.77, 8.77, 9.89, 9.8, 8.73, 8.44, 8.15, 8.85, 9.84, 10.19, 10.48, 11.92, 11.99, 10.71, 10.71, 10.71, 11.19, 10.89, 10.6, 10.3, 10.25, 9.77, 8.83, 7.1, 6.88, 6.79, 6.79, 7.93, 8.31, 8.31, 8.31, 8.87, 8.85, 8.53, 9.62, 10.3, 11.9, 12.42, 10.46, 9.76, 11.18, 13.41, 13.41, 13.41, 14.31, 3.69, 2.72, 7.51, 11.03, 10.62, 9.46, 9.3, 10.41, 9.67, 9.89, 9.89, 9.67, 10.55, 11.16, 12.39, 13.59, 14.52, 14.79, 14.6, 14.19, 13.47, 14.14, 14.22, 13.57, 13.23, 11.91, 11.46, 11.91, 13.23, 16.22, 16.48, 15.61, 15.65, 16.54, 16.99, 16.09, 13.75, 13.28, 13.32, 14.75, 15.9, 14.55, 11.99, 2.54, 0.0, 0.0, 3.68, 4.18, 2.47, 0.0, 3.58, 4.87, 6.43, 7.02, 7.85, 8.85, 9.42, 10.01, 10.01, 8.22, 8.53, 8.53, 10.65, 10.79, 12.72, 12.39, 10.71, 10.71, 10.71, 11.19, 10.89, 10.6, 10.3, 10.25, 9.25, 8.83, 7.98, 7.59, 8.57, 9.16, 10.75, 9.13, 8.31, 7.19, 8.05, 9.13, 10.77, 11.8, 11.75, 11.6, 12.89, 11.51, 12.52, 12.52, 13.67, 14.55, 13.72, 10.0, 6.3, 8.03, 11.61, 12.52, 12.07, 11.03, 9.86, 10.56, 10.81, 10.43, 10.2, 10.4, 11.09, 10.24, 11.33, 12.25, 13.28, 13.7, 15.12, 16.12, 15.69, 16.47, 16.05, 15.19, 14.39, 11.6, 10.0, 12.79, 15.99, 14.95, 16.05, 16.09, 15.65, 16.99, 18.08, 17.62, 14.38, 11.72, 12.39, 12.42, 13.56, 12.39, 12.45, 7.69, 0.0, 0.0, 2.06, 2.02, 2.28, 0.0, 0.0, 5.49, 6.65, 7.79, 8.73, 9.17, 9.42, 10.04, 9.67, 9.86, 9.09, 10.09, 13.56, 15.69, 13.67, 14.03, 10.71, 10.32, 10.32, 11.19, 10.89, 10.6, 9.87, 10.25, 9.25, 9.25, 8.43, 8.18, 8.83, 10.61, 12.05, 11.8, 10.2, 10.35, 10.79, 11.12, 12.21, 13.44, 13.36, 15.2, 13.41, 12.07, 11.62, 9.11, 9.75, 10.58, 10.62, 9.8, 9.2, 9.63, 10.22, 10.73, 11.14, 11.03, 10.2, 10.8, 10.96, 10.96, 10.73, 11.3, 10.27, 10.88, 12.3, 12.45, 13.15, 13.99, 14.42, 16.19, 17.68, 19.22, 17.26, 13.59, 14.22, 13.05, 7.9, 9.8, 14.31, 18.65, 16.99, 15.65, 17.43, 20.12, 21.9, 21.68, 17.99, 13.65, 10.73, 11.64, 12.27, 12.27, 11.09, 7.19, 0.0, 0.0, 2.35, 2.15, 0.0, 0.0, 0.0, 2.34, 5.96, 9.24, 9.12, 9.8, 10.77, 11.16, 10.35, 9.77, 10.38, 11.78, 12.86, 14.64, 14.3, 14.3, 10.32, 10.32, 10.32, 10.8, 10.51, 10.6, 10.15, 9.39, 9.77, 9.25, 8.43, 8.43, 8.99, 10.18, 12.22, 14.03, 13.52, 12.56, 12.72, 13.39, 14.47, 15.17, 15.65, 16.09, 16.09, 15.18, 14.65, 14.53, 14.03, 12.81, 11.62, 10.52, 10.04, 10.22, 10.23, 10.68, 10.58, 10.6, 10.5, 11.03, 11.11, 11.11, 11.03, 9.96, 9.75, 10.52, 13.15, 12.71, 12.87, 13.57, 13.15, 14.47, 15.12, 16.09, 18.33, 18.78, 20.56, 19.99, 7.32, 2.06, 16.09, -0.0, 4.01, 13.02, 18.21, 21.01, 23.69, 25.03, 24.29, 21.74, 15.17, 9.17, 8.1, 8.38, 8.05, 6.4, 0.0, 0.0, 3.07, 2.65, 2.15, 2.15, 0.0, 1.93, 3.79, 7.8, 9.48, 9.39, 11.44, 13.02, 12.65, 10.99, 10.5, 11.84, 12.9, 16.09, 15.2, 13.86, 10.32, 10.32, 10.32, 10.51, 10.51, 10.15, 10.15, 9.39, 9.77, 9.25, 9.25, 8.99, 8.99, 10.18, 11.79, 13.63, 14.39, 14.58, 13.99, 13.96, 14.55, 15.11, 16.07, 16.54, 16.54, 16.09, 16.07, 15.98, 15.98, 15.07, 13.82, 11.62, 11.18, 9.83, 9.79, 10.23, 9.79, 10.56, 10.56, 11.0, 11.02, 10.56, 10.84, 10.18, 9.7, 10.28, 10.18, 11.62, 13.28, 12.45, 13.15, 14.11, 14.75, 14.31, 11.38, 9.17, 11.06, 20.12, 0.0, -9.48, -5.31, -0.0, 5.98, 9.92, 13.61, 16.12, 16.86, 19.07, 20.72, 22.8, 22.79, 12.15, 7.6, 5.6, 7.36, 5.81, 0.0, 0.0, 0.0, 0.0, 2.5, 2.15, 1.88, 2.02, 3.07, 5.51, 8.0, 8.77, 8.85, 11.44, 13.03, 11.39, 10.92, 12.42, 13.19, 16.01, 14.68, 13.34, 10.32, 10.32, 10.32, 10.05, 10.05, 10.43, 10.15, 9.66, 9.39, 9.25, 9.25, 9.25, 9.67, 10.18, 11.38, 12.92, 13.89, 14.39, 14.83, 14.92, 14.7, 14.84, 15.43, 15.56, 15.62, 15.65, 15.65, 16.07, 15.53, 15.53, 15.08, 13.41, 12.07, 10.28, 10.28, 10.28, 10.62, 9.33, 10.84, 10.12, 10.68, 11.11, 10.28, 9.83, 10.28, 9.7, 9.55, 9.58, 9.97, 11.21, 12.3, 12.35, 11.46, 9.2, 8.23, 8.94, 15.34, 15.55, 17.67, 15.99, 4.1, 5.28, 9.16, 10.43, 13.02, 13.59, 13.19, 13.59, 13.8, 18.24, 20.12, 20.96, 11.41, 5.23, 3.79, 0.0, 0.0, 0.0, 0.0, 0.0, 3.33, 6.31, 2.21, 1.73, 1.78, 3.78, 5.23, 5.02, 6.95, 9.6, 11.44, 10.41, 10.8, 12.04, 12.85, 13.15, 12.71, 12.71, 10.32, 10.05, 10.05, 10.05, 10.43, 10.43, 10.15, 9.66, 9.39, 9.77, 9.25, 9.25, 9.67, 10.18, 10.95, 11.79, 13.63, 14.26, 14.79, 15.24, 15.1, 15.13, 14.87, 14.99, 15.11, 15.2, 15.65, 15.62, 15.99, 15.55, 15.62, 15.2, 13.41, 11.18, 10.28, 8.94, 10.04, 9.85, 10.65, 10.65, 9.83, 9.83, 10.28, 10.73, 10.28, 9.64, 9.2, 8.58, 7.59, 9.58, 11.03, 11.87, 11.45, 11.03, 9.75, 9.7, 10.73, 13.41, 15.65, 14.71, 10.3, 9.42, 9.16, 9.1, 8.93, 13.56, 14.07, 12.03, 12.79, 18.05, 23.69, 18.84, 3.51, -11.41, -16.09, 17.88, 0.0, -4.45, 0.0, 0.0, 3.59, 6.81, 3.42, 2.15, 1.9, 3.25, 3.2, 2.62, 4.9, 6.87, 9.8, 9.66, 11.33, 12.45, 12.6, 12.18, 12.08, 12.08, 10.32, 10.32, 10.05, 10.05, 10.43, 10.43, 10.15, 9.66, 9.39, 9.77, 9.77, 9.77, 10.18, 10.18, 11.06, 11.79, 12.57, 13.26, 14.46, 14.79, 15.52, 15.35, 15.51, 15.43, 15.2, 16.09, 16.07, 16.07, 16.09, 16.54, 16.09, 16.09, 14.28, 12.0, 9.34, 9.83, 10.28, 10.73, 10.28, 9.83, 10.28, 8.94, 10.28, 8.87, 10.14, 9.55, 8.23, 7.59, 7.59, 9.2, 9.6, 10.6, 11.18, 11.18, 10.75, 11.09, 11.09, 12.07, 12.22, 11.72, 11.53, 10.41, 10.16, 10.21, 10.18, 9.06, 9.63, 16.33, 14.6, 17.43, 23.64, 13.28, -4.45, -13.59, -0.0, 6.64, 18.33, -5.94, -4.55, 0.0, 0.0, 3.51, 6.31, 2.57, 1.71, 1.45, 2.6, 4.1, 5.45, 7.34, 9.13, 8.85, 9.42, 11.16, 12.11, 11.2, 12.04, 12.04, 10.32, 10.32, 10.32, 10.05, 10.43, 10.43, 10.43, 9.66, 9.66, 9.77, 9.77, 9.77, 10.18, 10.18, 10.61, 11.5, 12.57, 13.26, 13.87, 14.56, 15.27, 15.51, 15.27, 15.09, 15.65, 16.09, 16.99, 16.99, 16.52, 16.45, 16.44, 15.99, 14.97, 12.71, 12.24, 11.84, 10.91, 11.06, 10.14, 9.83, 9.83, 10.73, 10.28, 10.08, 9.96, 9.2, 7.59, 8.38, 9.2, 9.6, 9.6, 10.32, 10.32, 10.32, 10.32, 10.41, 10.84, 10.84, 10.6, 10.62, 10.16, 10.8, 10.79, 10.6, 10.47, 9.54, 9.26, 9.83, 14.64, 15.18, 21.92, 18.84, 20.12, 10.91, 9.42, 11.7, 15.14, 17.59, 0.0, 0.0, 0.0, 2.94, 5.23, 1.96, 1.9, 3.44, 4.55, 4.55, 4.24, 6.4, 8.31, 7.54, 8.53, 9.42, 10.37, 10.99, 11.33, 11.33, 10.32, 10.32, 10.32, 10.71, 10.43, 10.43, 9.92, 9.92, 9.66, 9.77, 9.77, 9.77, 10.18, 10.18, 10.61, 12.33, 11.54, 12.62, 13.03, 13.92, 15.08, 15.94, 15.01, 15.61, 14.69, 15.65, 13.72, 14.99, 14.31, 14.25, 15.55, 15.55, 13.99, 12.72, 12.21, 11.96, 11.45, 11.14, 10.7, 10.62, 11.18, 11.62, 11.18, 11.02, 11.45, 10.0, 9.6, 9.6, 9.6, 10.18, 10.32, 10.32, 10.32, 10.32, 10.62, 10.65, 10.65, 10.41, 10.88, 11.03, 11.03, 11.13, 11.13, 10.02, 10.16, 9.8, 9.83, 10.28, 11.14, 14.3, 18.78, 19.91, 22.48, 18.27, 15.99, 16.69, 17.25, 16.54, 16.48, 3.86, 5.51, 4.91, 2.4, 2.11, 2.16, 4.23, 6.28, 7.8, 5.65, 5.99, 6.6, 7.34, 6.4, 6.97, 9.8, 10.86, 11.28, 11.28, 9.8, 10.32, 10.71, 10.43, 9.92, 9.92, 9.92, 9.92, 10.05, 10.05, 9.77, 9.77, 10.18, 10.18, 10.65, 11.06, 11.17, 10.43, 12.22, 13.34, 15.42, 14.56, 14.39, 14.52, 13.74, 13.43, 13.44, 13.15, 13.86, 14.7, 14.24, 14.44, 13.2, 11.97, 11.55, 11.55, 11.55, 11.14, 11.11, 12.39, 12.93, 12.52, 11.6, 10.96, 11.27, 10.88, 9.89, 9.89, 9.89, 9.89, 9.89, 9.89, 10.18, 10.62, 9.79, 10.23, 11.09, 9.92, 10.35, 11.78, 11.35, 10.91, 11.11, 10.68, 9.83, 9.83, 9.39, 10.73, 12.52, 14.75, 17.7, 19.44, 23.24, 23.24, 19.77, 17.83, 21.01, 22.8, 15.33, 7.14, 5.65, 5.65, 2.59, 2.53, 2.22, 4.12, 5.18, 4.71, 5.65, 5.45, 6.2, 6.4, 6.0, 6.43, 8.58, 10.75, 10.43, 10.43, 9.8, 9.8, 10.19, 9.92, 9.92, 9.92, 9.92, 9.92, 10.05, 10.05, 9.77, 9.77, 10.18, 10.18, 10.65, 11.38, 11.5, 10.43, 9.8, 11.96, 13.38, 13.16, 12.76, 12.29, 13.01, 13.8, 13.7, 13.35, 13.99, 14.66, 14.56, 13.48, 12.39, 10.24, 10.61, 10.41, 10.41, 10.99, 11.45, 12.68, 12.94, 12.07, 11.62, 11.98, 12.24, 11.98, 10.18, 10.18, 10.18, 10.18, 10.18, 10.18, 10.28, 10.28, 10.73, 10.23, 11.0, 10.5, 11.45, 11.35, 11.55, 11.55, 11.18, 11.18, 9.83, 10.28, 10.28, 11.18, 12.52, 14.26, 16.12, 16.92, 22.19, 20.6, 18.78, 17.82, 21.46, 25.67, 24.14, 13.91, 5.8, 2.87, 2.79, 0.0, 1.96, 1.96, 3.81, 4.87, 5.63, 4.9, 5.4, 7.32, 7.1, 6.2, 7.58, 9.6, 9.6, 9.6, 9.8, 9.8, 10.19, 9.92, 9.92, 9.92, 9.92, 9.92, 10.05, 10.05, 9.77, 9.77, 10.25, 10.65, 10.65, 11.38, 11.38, 10.75, 10.31, 11.06, 12.3, 12.13, 11.07, 10.75, 11.83, 13.34, 14.39, 13.81, 13.82, 13.94, 13.88, 13.15, 11.72, 11.09, 10.41, 10.19, 10.61, 10.55, 12.18, 12.3, 12.2, 11.95, 11.6, 12.07, 12.03, 11.58, 10.73, 9.83, 10.28, 9.83, 9.83, 9.83, 9.83, 9.83, 10.28, 10.75, 10.62, 10.99, 11.03, 10.84, 10.56, 11.14, 10.73, 10.28, 10.25, 10.25, 10.68, 11.13, 11.62, 11.6, 9.16, 15.14, 21.65, 17.64, 12.3, 14.75, 15.59, 16.39, 23.66, 23.69, 8.8, 2.72, 0.0, 0.0, 0.0, 1.83, 3.58, 5.34, 6.17, 5.86, 5.8, 6.4, 7.32, 6.6, 6.4, 7.58, 8.57, 8.57, 9.8, 9.8, 10.19, 9.92, 9.92, 9.92, 9.92, 9.92, 10.05, 10.05, 10.05, 9.77, 10.25, 10.65, 10.65, 10.95, 11.38, 11.5, 11.06, 11.79, 12.98, 12.79, 11.9, 11.07, 10.75, 12.3, 13.39, 13.99, 14.23, 13.57, 12.89, 12.63, 11.91, 11.99, 12.3, 11.44, 11.44, 11.62, 12.51, 12.08, 12.35, 11.93, 11.59, 12.03, 11.62, 11.62, 10.73, 9.83, 9.83, 9.83, 9.83, 10.28, 9.83, 10.28, 10.14, 10.18, 9.48, 10.41, 11.6, 9.24, 9.68, 10.28, 10.28, 10.25, 10.25, 10.68, 11.13, 10.28, 9.45, 5.92, 8.1, 14.13, 21.38, 14.75, -11.18, -11.62, 14.75, 16.54, 16.99, 24.14, 14.86, 3.59, 0.0, 0.0, 0.0, 1.83, 3.3, 4.95, 5.37, 7.04, 7.2, 6.2, 8.31, 7.32, 6.4, 6.4, 8.05, 8.05, 9.8, 9.8, 10.19, 10.19, 9.92, 9.92, 9.92, 9.92, 10.05, 10.05, 10.05, 9.77, 10.25, 10.65, 10.95, 10.95, 11.38, 11.06, 11.47, 12.22, 13.34, 13.39, 13.2, 11.9, 11.42, 11.68, 12.05, 13.42, 13.81, 13.92, 13.99, 13.39, 12.68, 12.2, 12.58, 12.14, 11.71, 12.79, 12.75, 12.35, 12.35, 11.91, 12.03, 12.03, 11.57, 11.13, 12.42, 11.53, 11.06, 10.73, 11.62, 10.73, 10.18, 9.7, 9.75, 8.82, 8.54, 10.4, 11.92, 10.88, 8.77, 8.49, 9.39, 10.73, 10.28, 10.28, 10.66, 10.4, 6.4, 6.17, 8.37, 21.46, 27.19, 22.12, 15.19, 12.52, 12.96, 12.96, 10.12, 13.19, 17.48, 11.53, 5.8, 2.22, 0.0, 1.93, 1.97, 3.98, 4.55, 4.91, 6.52, 6.65, 8.05, 8.31, 8.05, 6.2, 6.65, 6.65, 10.19, 10.19, 10.19, 10.19, 9.92, 9.92, 9.66, 9.66, 10.05, 10.05, 9.77, 9.77, 10.25, 10.95, 10.95, 10.95, 11.38, 11.06, 11.79, 12.22, 12.92, 12.98, 13.64, 13.41, 12.94, 12.27, 12.65, 12.5, 13.2, 13.77, 13.7, 13.99, 13.39, 12.46, 12.68, 12.37, 11.93, 12.92, 12.92, 12.47, 12.03, 12.03, 12.03, 11.58, 11.46, 11.28, 11.54, 10.93, 10.62, 11.15, 10.73, 11.62, 10.18, 10.18, 9.75, 9.13, 9.13, 9.03, 11.46, 11.51, 10.41, 8.77, 8.89, 9.6, 9.33, 9.33, 9.1, 7.9, 7.36, 9.2, 12.0, 16.99, 21.8, 28.28, 24.93, 21.46, 17.88, 14.3, 13.41, 0.0, 10.12, 19.51, 17.48, 3.53, 0.0, 0.0, 2.61, 2.55, 2.27, 3.79, 4.12, 7.0, 7.79, 9.16, 8.73, 7.79, 6.43, 6.43, 10.19, 10.19, 10.19, 10.19, 9.92, 9.92, 9.92, 9.66, 10.05, 9.77, 9.77, 9.77, 10.25, 10.95, 10.95, 10.95, 11.38, 11.06, 11.79, 11.79, 12.22, 12.98, 12.98, 13.64, 13.81, 13.59, 12.99, 12.74, 12.99, 12.99, 13.19, 13.15, 13.05, 12.89, 12.24, 12.2, 12.35, 12.47, 12.47, 12.47, 12.03, 12.03, 11.93, 11.49, 11.49, 11.33, 11.18, 10.75, 10.8, 10.96, 10.63, 10.26, 12.07, 11.62, 11.18, 10.58, 9.21, 9.21, 10.28, 11.18, 11.53, 10.84, 8.99, 8.56, 8.91, 8.8, 8.49, 6.71, 8.49, 9.6, 11.11, 13.86, 16.99, 24.5, 28.51, 25.03, 0.0, -16.99, -12.96, -12.52, -6.4, -0.0, 4.99, 22.35, 3.86, 0.0, 0.0, 0.0, 0.0, 1.63, 4.01, 7.6, 8.29, 7.82, 9.02, 8.59, 7.19, 7.19, 9.37, 9.37, 9.37, 9.37, 9.37, 9.92, 9.92, 9.66, 9.77, 9.77, 9.77, 9.77, 10.25, 10.65, 10.95, 10.95, 11.38, 11.38, 11.38, 11.79, 12.22, 12.57, 12.98, 13.02, 13.64, 13.81, 13.59, 12.99, 13.39, 12.99, 12.99, 12.79, 12.38, 12.3, 11.87, 11.71, 11.91, 11.91, 11.91, 11.46, 11.46, 11.49, 11.49, 11.49, 10.89, 10.93, 10.75, 10.1, 10.18, 9.75, 9.93, 10.37, 10.52, 10.49, 11.57, 10.73, 9.83, 9.39, 8.49, 9.83, 11.51, 10.12, 10.91, 9.21, 10.32, 8.93, 7.9, 7.9, 9.48, 11.03, 12.01, 12.52, 14.25, 16.54, 20.56, 27.72, 0.0, -18.24, -14.3, -9.3, -5.4, -3.47, -0.0, 3.77, 21.01, 0.0, 0.0, 0.0, 0.0, 1.83, 4.81, 5.23, 7.8, 7.2, 8.57, 8.59, 8.3, 8.3, 9.37, 9.37, 9.37, 9.37, 9.37, 9.37, 9.92, 9.66, 9.39, 9.77, 9.77, 9.77, 9.77, 10.95, 10.95, 10.95, 11.38, 11.38, 11.38, 11.38, 12.22, 12.22, 12.62, 12.62, 13.02, 13.42, 13.81, 13.77, 13.19, 13.15, 12.99, 12.93, 12.38, 12.3, 11.45, 11.71, 11.28, 11.46, 11.46, 11.46, 11.02, 10.89, 11.05, 10.6, 9.74, 9.62, 9.46, 10.1, 9.75, 9.33, 9.75, 9.75, 9.75, 10.18, 9.89, 10.96, 10.28, 9.39, 8.94, 9.39, 9.83, 10.28, 10.73, 10.28, 10.04, 9.08, 7.9, 8.72, 9.75, 11.57, 12.52, 12.47, 12.75, 14.95, 14.68, 20.36, 24.59, -18.66, -15.65, -9.8, -3.39, -3.1, -0.0, 2.02, 6.97, 18.79, 0.0, 0.0, 0.0, 1.68, 3.2, 5.65, 5.81, 5.51, 7.4, 9.09, 9.16, 9.16, 9.37, 9.37, 9.37, 9.37, 9.37, 9.37, 9.12, 9.66, 9.39, 9.77, 9.77, 9.77, 9.77, 10.47, 10.95, 10.95, 11.38, 11.38, 11.06, 11.5, 12.22, 11.88, 12.3, 12.3, 13.02, 12.65, 13.03, 13.41, 13.19, 13.15, 12.99, 12.93, 12.52, 12.1, 11.87, 11.71, 11.28, 11.46, 11.02, 10.84, 10.89, 10.89, 10.41, 10.96, 10.68, 9.81, 9.18, 9.33, 8.4, 9.13, 9.13, 9.13, 9.13, 9.04, 9.34, 8.95, 10.6, 10.58, 9.83, 9.83, 10.28, 10.24, 10.25, 10.28, 10.27, 6.97, 7.9, 8.72, 9.6, 10.28, 11.84, 13.63, 13.19, 15.09, 18.84, 19.52, 19.19, -0.0, -18.33, -14.51, -5.15, -1.48, -0.0, -0.0, 4.38, 5.48, 12.33, 8.0, 2.79, 1.94, 1.89, 3.79, 5.65, 4.95, 5.51, 7.4, 7.54, 7.54, 9.12, 9.12, 9.12, 9.12, 9.12, 9.12, 9.12, 9.12, 9.39, 9.77, 9.77, 9.77, 9.77, 10.18, 10.47, 10.18, 11.38, 11.06, 11.5, 11.5, 11.5, 11.88, 12.3, 11.95, 11.95, 12.37, 12.79, 12.81, 13.19, 12.79, 13.15, 12.58, 12.52, 12.1, 11.96, 11.54, 11.33, 10.84, 10.84, 10.89, 10.45, 10.25, 10.18, 9.75, 9.97, 10.68, 10.25, 8.55, 8.4, 8.49, 8.49, 8.11, 8.4, 8.52, 8.63, 8.18, 8.58, 9.16, 10.73, 9.83, 10.28, 10.12, 10.68, 10.84, 6.98, 7.59, 8.49, 9.08, 9.03, 9.76, 9.63, 12.72, 15.34, 16.66, 15.84, 18.21, 14.54, -0.0, -8.6, -11.16, -9.4, -0.0, -0.0, 2.21, 3.93, 5.64, 5.48, 12.96, 18.33, 13.59, 5.04, 4.23, 6.12, 4.01, 3.3, 6.28, 8.21, 8.21, 9.12, 9.12, 9.12, 9.12, 9.12, 9.12, 9.12, 9.12, 8.86, 9.77, 9.77, 9.77, 9.77, 10.18, 10.18, 10.18, 10.61, 11.06, 11.5, 11.5, 11.5, 11.94, 11.6, 11.95, 11.95, 12.37, 12.0, 12.41, 12.42, 12.79, 13.15, 13.15, 13.05, 12.52, 12.39, 11.96, 11.76, 10.89, 10.89, 10.25, 10.25, 10.25, 9.83, 9.75, 8.95, 10.28, 10.14, 9.29, 9.24, 9.42, 8.72, 8.58, 8.4, 8.05, 7.51, 7.13, 7.96, 9.33, 9.33, 10.28, 10.22, 10.68, 11.18, 8.73, 8.37, 8.54, 9.75, 10.8, 10.41, 9.83, 8.06, 10.18, 14.75, 22.8, 21.92, 17.78, 4.34, -2.4, -3.68, -11.41, -11.9, -4.66, -0.0, -0.0, 5.09, 7.4, 8.28, 9.39, 13.95, 16.66, 14.11, 8.43, 5.96, 4.34, 4.01, 3.9, 7.04, 7.04, 9.12, 9.12, 9.12, 9.12, 9.12, 9.12, 9.12, 9.12, 8.86, 9.25, 9.77, 9.77, 9.77, 10.18, 10.18, 10.18, 10.61, 10.61, 11.5, 11.5, 11.5, 11.94, 11.6, 11.6, 11.6, 11.69, 12.0, 11.39, 12.95, 11.81, 12.2, 12.79, 12.74, 12.33, 12.52, 12.1, 11.96, 11.11, 10.68, 10.25, 10.25, 10.25, 9.83, 9.49, 9.2, 9.34, 9.75, 9.75, 9.37, 9.36, 9.36, 9.36, 9.21, 8.91, 8.91, 8.15, 8.79, 9.16, 9.16, 9.21, 10.66, 10.73, 9.63, 9.33, 9.97, 9.32, 8.94, 10.28, 11.62, 11.18, 9.74, 9.89, 12.3, 17.7, 29.5, 21.29, 4.95, -6.67, -7.13, -10.46, -15.99, -15.99, -12.01, -0.0, 4.12, 8.97, 10.89, 12.01, 14.79, 14.03, 14.3, 13.19, 8.93, 4.42, 4.34, 2.05, 4.01, 4.01, 8.29, 8.29, 8.53, 8.53, 9.12, 9.12, 9.12, 9.12, 8.86, 9.25, 9.25, 9.77, 9.77, 9.77, 10.18, 10.18, 10.61, 10.61, 11.06, 11.06, 11.5, 11.6, 11.6, 11.6, 11.26, 11.69, 11.34, 11.34, 11.03, 12.65, 11.2, 11.58, 11.58, 11.81, 12.18, 11.77, 11.68, 11.27, 10.85, 10.32, 9.9, 10.01, 9.6, 9.6, 9.49, 9.34, 9.68, 9.5, 9.31, 9.32, 9.37, 9.37, 9.28, 9.26, 9.24, 9.35, 9.34, 9.34, 9.34, 9.34, 9.39, 10.2, 11.02, 9.74, 9.76, 10.28, 9.39, 8.85, 10.73, 11.62, 10.47, 10.18, 10.91, 16.03, 28.61, 25.03, 16.66, -6.0, -8.1, -10.12, -13.02, -16.99, -16.99, -16.99, -0.0, 5.94, 11.53, 13.96, 14.79, 14.3, 13.41, 13.23, 11.17, 7.6, 4.3, 2.15, 2.0, 2.0, 8.29, 8.29, 8.29, 8.53, 8.53, 9.12, 9.12, 9.12, 8.86, 9.25, 9.25, 9.25, 9.77, 9.77, 10.18, 10.18, 10.61, 10.61, 11.06, 11.06, 10.75, 11.6, 11.6, 11.6, 11.26, 11.69, 11.34, 11.34, 11.34, 11.8, 11.41, 11.2, 10.94, 11.2, 11.2, 11.6, 11.6, 11.2, 11.14, 10.73, 10.32, 9.9, 9.9, 9.6, 9.6, 9.6, 9.6, 9.68, 9.5, 9.5, 9.21, 9.21, 9.29, 9.28, 9.26, 9.35, 9.34, 9.34, 8.9, 9.33, 11.62, 10.73, 10.52, 10.73, 9.39, 9.83, 9.83, 9.74, 10.73, 11.62, 11.11, 11.61, 11.95, 14.3, 23.69, 27.27, 19.67, 14.88, -11.38, -11.38, -13.39, -16.54, -16.54, -12.33, -12.33, 18.33, 13.59, 17.78, 16.09, 14.3, 12.96, 12.71, 12.3, 10.75, 7.6, 2.09, 2.28, 2.28, 8.29, 8.29, 8.29, 8.29, 8.29, 8.53, 9.12, 8.86, 8.86, 9.25, 9.25, 8.99, 9.25, 9.25, 9.67, 9.67, 10.61, 10.61, 10.61, 10.75, 10.75, 11.2, 11.6, 11.26, 11.26, 11.34, 11.34, 11.34, 11.34, 12.03, 12.03, 11.77, 11.6, 11.2, 11.38, 11.38, 11.38, 10.99, 11.2, 11.14, 10.73, 10.32, 9.9, 9.49, 9.6, 9.6, 9.6, 9.68, 9.26, 9.5, 9.5, 9.03, 9.15, 9.11, 9.24, 8.9, 8.9, 8.89, 8.94, 8.94, 8.94, 11.18, 10.52, 10.52, 10.73, 10.28, 9.83, 10.73, 10.73, 11.62, 12.0, 12.52, 13.86, 15.2, 19.22, 22.35, 21.9, 19.22, 16.79, -12.96, -16.54, -16.99, -15.69, -13.76, -11.7, -12.01, 0.0, 14.39, 14.31, 13.44, 13.01, 13.15, 12.45, 11.5, 9.77, 2.72, 0.0, 0.0, 8.29, 8.29, 8.29, 8.29, 8.29, 8.29, 8.29, 8.29, 8.86, 9.25, 9.25, 8.99, 8.99, 9.67, 9.67, 9.67, 10.11, 9.82, 10.31, 10.75, 10.75, 10.75, 10.87, 10.87, 10.87, 11.34, 11.34, 11.34, 11.34, 11.76, 12.03, 11.99, 11.77, 11.36, 11.55, 11.39, 11.39, 11.39, 11.39, 10.99, 10.99, 10.58, 10.32, 10.18, 9.49, 9.6, 9.6, 9.68, 9.26, 9.26, 9.26, 9.03, 8.97, 9.11, 9.24, 9.21, 8.89, 8.94, 8.94, 8.49, 8.94, 8.94, 11.18, 10.28, 10.28, 11.18, 10.2, 10.73, 10.73, 11.18, 12.52, 12.52, 15.2, 16.48, 18.78, 18.33, 18.78, 20.56, 21.01, -0.0, -19.22, -16.99, -12.65, -10.43, -10.43, -8.18, 0.0, 4.52, 9.8, 11.09, 11.09, 12.87, 12.45, 11.5, 9.48, 5.81, 0.0, 0.0, 8.06, 8.06, 8.06, 8.06, 8.29, 8.29, 8.29, 8.29, 8.68, 8.43, 9.25, 8.99, 8.99, 9.39, 9.39, 9.39, 9.82, 9.82, 9.82, 10.31, 10.75, 10.43, 10.87, 10.87, 10.87, 10.54, 11.34, 10.98, 10.98, 11.39, 11.39, 11.42, 11.99, 11.77, 11.36, 11.55, 11.55, 11.39, 11.39, 10.99, 10.58, 10.58, 9.77, 10.18, 9.24, 9.49, 9.6, 9.45, 9.04, 9.04, 9.26, 8.76, 8.91, 8.82, 8.99, 8.73, 8.89, 8.94, 8.49, 8.49, 8.94, 8.49, 10.73, 10.28, 10.73, 11.18, 10.28, 10.28, 10.73, 10.65, 11.53, 12.96, 15.2, 17.88, 20.56, 18.78, 15.58, 16.92, 21.46, 21.01, -19.22, -16.12, -12.27, -11.09, -8.31, -5.15, 0.0, 0.0, 6.4, 8.58, 10.12, 10.12, 11.09, 11.09, 11.09, 8.31, 5.48, 2.72, 8.06, 8.06, 8.06, 8.06, 8.06, 8.06, 8.29, 8.29, 8.43, 8.43, 8.43, 8.43, 8.99, 9.39, 9.39, 9.39, 9.39, 9.82, 9.82, 9.82, 10.43, 10.43, 10.43, 10.87, 10.54, 10.54, 10.99, 10.65, 10.98, 11.39, 11.39, 11.03, 11.42, 11.41, 11.77, 11.36, 11.36, 11.55, 10.99, 10.99, 10.4, 10.4, 9.6, 10.05, 9.06, 9.33, 9.34, 9.05, 9.05, 9.04, 8.93, 9.08, 8.55, 8.72, 8.91, 8.73, 8.94, 8.94, 8.49, 8.49, 8.49, 8.49, 10.73, 9.83, 10.28, 10.73, 10.73, 10.2, 10.65, 11.09, 11.18, 12.52, 14.3, 16.54, 23.25, 24.14, 16.92, 15.78, 17.64, 18.33, -15.19, -13.39, -13.02, -8.85, -7.13, -3.81, -2.09, 0.0, 4.66, 7.59, 9.22, 10.12, 10.12, 10.12, 9.8, 9.8, 8.31, 5.48, 8.06, 8.06, 8.06, 8.06, 8.06, 8.06, 8.06, 8.43, 8.43, 8.43, 8.43, 8.43, 8.43, 8.83, 8.83, 8.83, 9.39, 9.82, 9.82, 9.82, 9.53, 10.43, 10.43, 10.43, 10.54, 10.54, 10.54, 10.65, 10.65, 10.65, 11.03, 11.03, 11.03, 11.04, 11.41, 11.02, 11.36, 11.2, 10.6, 10.6, 9.97, 10.0, 10.0, 9.2, 10.18, 9.4, 9.34, 8.88, 8.49, 8.49, 8.63, 8.63, 8.18, 8.21, 8.91, 9.33, 8.94, 8.49, 8.49, 8.49, 8.49, 8.49, 8.05, 10.28, 10.28, 10.14, 9.76, 10.2, 10.73, 11.18, 11.18, 11.62, 12.96, 14.75, 19.22, 26.27, 27.72, 15.47, 6.8, -14.3, -13.57, -13.99, -12.27, -8.58, -5.15, -3.93, -1.89, 0.0, 2.15, 4.18, 8.18, 9.22, 8.94, 8.58, 8.31, 8.31, 8.31, 8.31, 7.82, 7.82, 7.82, 7.82, 7.82, 7.82, 8.06, 8.43, 8.43, 8.43, 8.43, 8.43, 8.83, 8.83, 8.83, 8.83, 8.83, 9.27, 9.53, 9.53, 9.53, 9.53, 10.43, 10.12, 10.12, 10.54, 10.22, 10.22, 10.65, 10.65, 10.3, 10.73, 10.66, 11.04, 11.04, 11.41, 11.02, 10.81, 10.8, 10.2, 10.2, 9.58, 9.58, 8.93, 8.82, 10.38, 8.67, 8.55, 8.4, 8.6, 8.18, 8.18, 8.6, 8.99, 9.21, 9.39, 8.94, 8.49, 8.49, 8.49, 8.49, 7.97, 10.28, 9.83, 9.83, 10.28, 9.76, 10.73, 10.28, 11.18, 11.62, 11.62, 11.91, 12.35, 15.65, 20.12, 30.84, 9.05, -13.02, -12.52, -13.41, -13.88, -12.39, -9.48, -5.15, -3.93, -1.89, 0.0, 0.0, 1.94, 5.99, 8.43, 8.94, 7.36, 5.31, 7.13, 7.13, 7.13, 7.23, 7.23, 7.23, 7.23, 7.23, 7.82, 8.18, 8.43, 8.43, 8.43, 8.43, 8.43, 8.83, 8.83, 8.83, 8.83, 8.83, 9.27, 8.99, 9.53, 9.53, 9.53, 9.24, 9.67, 10.12, 10.12, 9.8, 10.22, 10.22, 10.3, 10.3, 10.3, 10.37, 10.37, 10.79, 10.79, 11.2, 10.81, 10.18, 10.18, 9.81, 9.58, 9.58, 9.58, 9.43, 9.74, 9.4, 9.11, 9.06, 8.99, 8.58, 8.58, 9.13, 9.64, 9.39, 9.39, 8.94, 8.94, 8.49, 8.05, 8.05, 7.98, 7.98, 9.83, 9.83, 10.28, 10.28, 10.28, 10.18, 11.09, 11.09, 10.73, 11.46, 10.84, 12.72, 15.87, 21.25, -18.35, -29.54, -19.67, -17.43, -16.48, -14.39, -11.7, -7.2, -3.07, -2.09, 0.0, 0.0, 1.73, 3.69, 7.54, 8.18, 7.36, 4.38, 4.38, 4.38, 4.38, 7.23, 7.23, 7.23, 7.23, 7.23, 7.23, 7.59, 7.59, 7.59, 7.59, 8.18, 8.18, 8.57, 8.83, 8.83, 8.83, 8.83, 8.99, 8.99, 8.99, 9.53, 9.53, 9.24, 9.24, 9.67, 10.12, 9.8, 9.8, 10.22, 9.89, 10.3, 10.3, 9.96, 10.37, 10.37, 10.79, 10.79, 10.12, 10.18, 10.18, 9.81, 9.52, 9.58, 9.2, 9.42, 9.6, 9.6, 9.58, 9.28, 9.26, 9.26, 9.26, 9.26, 9.35, 9.39, 9.39, 9.39, 8.94, 8.49, 8.05, 8.05, 7.98, 7.98, 9.83, 9.39, 9.83, 10.14, 10.58, 9.45, 10.41, 10.65, 10.28, 10.47, 11.03, 11.85, 13.57, 16.33, 10.8, -31.22, -28.61, -25.48, -23.23, -19.99, -14.22, -8.0, -3.16, 0.0, 0.0, 0.0, 0.0, 1.89, 5.81, 8.18, 7.36, 4.52, 4.38, 4.38, 4.38, 7.23, 7.23, 7.23, 7.23, 7.23, 7.59, 7.59, 7.59, 7.59, 7.59, 7.59, 8.57, 8.57, 8.57, 8.57, 8.57, 8.57, 8.99, 8.99, 8.99, 8.99, 9.24, 9.24, 9.24, 9.24, 9.67, 9.8, 9.8, 9.8, 9.89, 9.89, 10.3, 9.96, 9.96, 10.37, 10.01, 10.41, 10.12, 10.12, 9.76, 9.4, 9.52, 9.16, 9.2, 9.42, 9.6, 9.6, 9.4, 9.58, 9.15, 9.28, 9.28, 9.36, 9.36, 9.39, 9.39, 9.39, 8.94, 8.94, 8.49, 7.98, 7.98, 7.98, 7.55, 9.83, 9.64, 10.08, 9.46, 9.45, 9.89, 10.73, 9.76, 9.97, 10.6, 11.45, 12.42, 14.47, 18.24, 23.25, 28.16, -30.4, -28.62, -22.79, -15.17, -8.2, -3.33, 0.0, 0.0, 0.0, 0.0, 0.0, 5.28, 7.69, 7.13, 4.38, 1.96, 1.96, 1.96, 7.23, 7.23, 7.23, 7.23, 7.23, 7.59, 7.59, 7.59, 7.59, 7.59, 7.59, 7.98, 8.57, 8.57, 8.57, 8.57, 8.57, 8.57, 8.99, 8.99, 8.72, 8.72, 9.24, 9.24, 9.24, 9.24, 8.95, 9.8, 9.8, 9.48, 9.89, 9.89, 9.96, 9.96, 9.96, 10.01, 9.69, 10.12, 10.12, 9.76, 9.08, 9.52, 9.16, 9.2, 9.42, 9.03, 9.2, 9.49, 9.83, 9.58, 9.58, 9.28, 9.26, 9.35, 9.34, 9.39, 9.39, 8.94, 8.87, 8.43, 7.98, 7.54, 7.54, 7.54, 7.6, 9.83, 9.83, 8.94, 9.39, 9.83, 9.83, 9.76, 9.97, 10.91, 11.78, 12.71, 14.25, 15.59, 17.88, 19.57, 25.15, -32.63, -25.66, -16.12, -8.6, -3.51, 0.0, 0.0, 0.0, 0.0, 0.0, 3.56, 7.44, 8.38, 6.0, 2.2, 2.2, 2.2, 7.23, 7.23, 7.23, 7.23, 7.01, 7.36, 7.59, 7.59, 7.59, 7.59, 7.59, 7.98, 7.98, 8.57, 8.57, 8.57, 8.57, 8.57, 8.57, 8.99, 8.72, 8.72, 9.24, 9.24, 9.24, 8.95, 8.95, 8.95, 9.8, 9.48, 9.89, 9.89, 9.17, 9.59, 9.59, 9.26, 9.69, 9.69, 9.3, 8.97, 9.08, 9.08, 9.52, 9.16, 9.42, 9.03, 9.36, 9.49, 9.75, 9.75, 9.54, 9.54, 9.68, 9.34, 8.89, 8.87, 8.87, 8.87, 8.87, 8.43, 8.43, 7.98, 7.54, 7.54, 7.15, 9.83, 9.39, 9.39, 9.39, 9.29, 9.32, 9.76, 10.65, 11.55, 12.44, 12.9, 13.79, 14.69, 15.65, 16.93, 19.79, 27.72, -21.18, -18.97, -10.0, -3.68, -2.79, 0.0, 0.0, 0.0, 0.0, 1.9, 5.11, 7.19, 7.19, 4.1, 4.1, 4.1, 7.23, 7.23, 7.23, 7.01, 7.01, 7.36, 7.36, 7.59, 7.59, 7.59, 7.98, 7.98, 7.98, 7.98, 7.98, 8.57, 8.57, 8.57, 8.57, 8.31, 8.31, 8.72, 8.72, 9.24, 9.24, 8.95, 8.95, 8.95, 8.95, 9.06, 9.06, 9.48, 9.17, 9.17, 9.59, 9.26, 9.26, 8.97, 8.97, 8.97, 8.64, 9.08, 9.52, 9.16, 9.2, 9.03, 9.36, 9.36, 9.75, 9.75, 9.97, 9.92, 9.68, 9.64, 9.33, 8.87, 8.87, 8.87, 8.87, 8.43, 8.43, 7.98, 7.54, 7.08, 6.71, 9.39, 9.39, 9.39, 9.83, 9.39, 10.28, 10.2, 11.09, 11.55, 12.0, 12.45, 13.34, 14.3, 14.75, 16.09, 17.81, 22.35, 24.39, -15.37, -11.0, -4.03, -2.87, 0.0, 0.0, 0.0, 0.0, 1.83, 3.56, 7.19, 8.3, 7.19, 7.19, 7.19, 7.23, 7.23, 7.01, 7.01, 7.01, 7.36, 7.36, 7.59, 7.59, 7.59, 7.59, 7.98, 7.98, 7.98, 7.98, 7.98, 8.31, 8.31, 8.31, 8.31, 8.31, 8.31, 8.31, 8.31, 8.95, 8.95, 8.95, 8.95, 8.95, 8.66, 9.06, 9.06, 9.17, 9.17, 8.85, 9.26, 8.85, 8.53, 8.53, 8.97, 8.97, 9.08, 9.52, 9.16, 9.58, 9.42, 9.36, 9.36, 9.66, 9.66, 9.92, 9.92, 10.08, 9.64, 9.16, 9.32, 8.87, 8.87, 8.43, 8.43, 8.43, 7.98, 7.54, 7.52, 7.08, 8.38, 8.94, 9.39, 9.39, 9.39, 9.83, 9.77, 10.66, 11.11, 12.0, 12.44, 12.96, 13.41, 14.3, 15.2, 16.99, 18.78, 22.05, 0.0, -6.07, -4.21, -2.43, 0.0, 0.0, 0.0, 0.0, 0.0, 1.71, 4.75, 6.7, 6.94, 6.94, 6.94, 7.01, 7.01, 7.01, 7.01, 7.01, 7.36, 7.36, 7.59, 7.59, 7.59, 7.59, 7.98, 7.98, 7.98, 7.98, 7.74, 7.74, 7.74, 8.31, 8.31, 8.31, 8.31, 8.31, 8.05, 8.56, 8.56, 8.95, 8.95, 8.95, 8.66, 9.06, 9.06, 8.76, 9.17, 8.85, 8.42, 8.53, 8.53, 8.07, 8.07, 8.53, 8.69, 9.08, 9.16, 9.58, 9.2, 9.6, 9.36, 9.66, 9.66, 9.49, 9.42, 9.42, 9.6, 9.6, 9.32, 8.87, 8.87, 8.43, 8.43, 8.43, 7.98, 7.98, 7.52, 6.88, 8.82, 8.94, 9.39, 9.39, 9.39, 9.39, 9.77, 9.6, 10.47, 11.55, 12.44, 12.88, 13.41, 13.86, 15.2, 15.65, 16.99, 18.22, 19.71, -6.51, -3.68, 0.0, 0.0, 0.0, 0.0, 0.0, 0.0, 1.39, 3.19, 4.58, 5.99, 5.99, 5.99, 7.01, 6.4, 6.4, 6.4, 6.4, 6.4, 6.73, 6.73, 7.59, 7.59, 7.59, 7.59, 7.74, 7.98, 7.98, 7.74, 7.74, 7.74, 7.74, 8.31, 8.31, 8.31, 8.31, 8.05, 8.05, 8.56, 8.56, 8.56, 8.66, 8.66, 8.66, 8.76, 8.76, 8.3, 8.42, 8.42, 7.64, 8.07, 8.07, 8.07, 8.22, 8.69, 8.69, 8.82, 9.58, 9.2, 9.6, 9.6, 9.55, 9.55, 9.85, 9.42, 9.42, 9.6, 9.54, 9.54, 9.11, 8.67, 8.24, 8.24, 7.81, 7.81, 7.81, 7.31, 7.31, 7.31, 8.82, 8.94, 8.94, 9.39, 9.83, 9.83, 9.54, 9.21, 10.6, 11.78, 12.22, 12.88, 13.77, 14.66, 15.2, 15.55, 16.44, 20.6, -13.34, -3.95, 0.0, 0.0, 0.0, 0.0, 0.0, 0.0, 1.64, 1.58, 4.4, 5.54, 5.54, 5.54, 6.4, 6.4, 6.4, 6.4, 6.4, 6.4, 6.73, 6.73, 6.94, 7.59, 7.59, 7.36, 7.36, 7.36, 7.74, 7.74, 7.74, 7.74, 7.74, 7.74, 8.31, 8.31, 8.05, 8.05, 8.05, 8.05, 8.05, 8.56, 8.29, 8.66, 8.18, 7.9, 8.3, 8.01, 8.01, 7.93, 7.64, 7.64, 7.64, 8.07, 8.22, 8.22, 8.35, 8.82, 9.3, 9.3, 9.6, 9.6, 9.55, 9.55, 9.55, 9.42, 9.33, 9.6, 9.54, 9.54, 9.11, 8.67, 8.67, 8.24, 7.81, 7.81, 7.81, 7.74, 7.74, 7.31, 9.26, 9.26, 9.39, 9.39, 9.39, 9.83, 10.28, 10.18, 9.6, 10.4, 11.72, 13.01, 13.31, 13.33, 14.22, 15.11, 15.99, -12.19, -15.56, -4.03, 0.0, 0.0, 0.0, 0.0, 0.0, 0.0, 0.0, 1.64, 3.07, 4.4, 4.4, 4.4, 6.4, 6.4, 6.4, 6.4, 6.4, 6.4, 6.4, 6.73, 6.73, 7.36, 7.36, 7.36, 7.36, 7.36, 7.36, 7.36, 7.36, 7.36, 7.74, 7.74, 7.74, 8.31, 8.05, 8.05, 8.05, 8.05, 8.05, 8.05, 7.79, 7.79, 8.18, 7.9, 7.9, 8.01, 8.01, 7.64, 7.64, 7.64, 6.84, 7.26, 7.26, 7.72, 8.35, 8.82, 9.3, 9.3, 9.38, 9.6, 9.55, 9.55, 9.13, 9.33, 9.6, 9.6, 9.54, 9.54, 9.11, 9.11, 8.67, 8.67, 8.24, 7.81, 7.74, 7.74, 7.74, 7.74, 8.17, 8.87, 10.28, 9.83, 9.83, 9.83, 10.28, 10.73, 10.62, 10.75, 11.61, 12.58, 13.31, 13.09, 13.44, 14.75, 18.68, -12.0, -14.75, -4.12, 0.0, 0.0, 0.0, 0.0, 0.0, 0.0, 0.0, 1.58, 3.07, 4.4, 4.4, 4.4, 6.4, 6.4, 6.4, 6.4, 6.4, 6.4, 6.4, 6.4, 6.73, 6.73, 7.36, 7.36, 7.36, 7.36, 7.36, 7.36, 7.36, 7.36, 7.36, 7.36, 7.36, 7.36, 7.69, 8.05, 8.05, 8.05, 8.05, 7.79, 7.79, 7.79, 7.54, 7.9, 7.9, 8.01, 7.51, 7.24, 7.1, 7.1, 6.84, 6.84, 7.26, 7.72, 7.9, 8.41, 9.3, 9.3, 9.38, 9.38, 9.4, 9.4, 8.99, 9.33, 9.6, 9.54, 9.54, 9.11, 9.11, 9.11, 8.67, 8.67, 8.24, 8.17, 7.74, 7.74, 7.74, 7.74, 8.17, 8.41, 10.28, 10.28, 10.73, 10.28, 10.28, 10.2, 10.41, 10.2, 11.62, 12.39, 12.86, 13.01, 13.01, 14.18, 15.02, 0.0, -15.02, -4.99, 0.0, 0.0, 0.0, 0.0, 0.0, 0.0, 0.0, 1.71, 1.91, 3.07, 3.07, 3.07, 6.4, 6.4, 6.4, 6.4, 6.4, 6.4, 6.4, 6.4, 6.4, 6.4, 7.36, 7.36, 7.36, 7.36, 7.36, 7.36, 7.36, 7.36, 7.36, 7.36, 7.36, 7.36, 7.13, 7.69, 7.69, 7.69, 8.05, 7.79, 7.79, 7.79, 7.54, 7.54, 7.9, 7.12, 7.51, 7.24, 6.7, 6.45, 6.84, 6.84, 7.26, 7.72, 7.9, 8.41, 8.94, 8.58, 9.38, 8.99, 9.4, 9.4, 9.33, 9.33, 9.6, 9.11, 9.11, 9.11, 9.11, 9.11, 9.11, 8.67, 8.17, 8.17, 7.74, 7.74, 7.74, 7.74, 7.74, 8.41, 8.41, 10.73, 10.73, 10.73, 10.73, 10.28, 10.28, 10.28, 10.28, 11.62, 12.04, 12.46, 12.33, 13.99, 15.02, 0.0, -12.99, -10.2, -3.42, 0.0, 0.0, 0.0, 0.0, 0.0, 0.0, 0.0, 1.98, 3.82, 3.82, 3.82, 6.2, 6.2, 6.4, 6.4, 6.4, 6.4, 6.4, 6.4, 6.4, 6.4, 7.01, 7.36, 7.36, 7.36, 7.36, 7.36, 7.36, 7.36, 7.36, 7.36, 7.36, 7.36, 7.36, 7.13, 7.69, 7.69, 7.44, 7.44, 7.79, 7.79, 7.54, 7.01, 6.77, 7.12, 7.51, 6.7, 6.7, 6.45, 6.45, 6.84, 7.26, 7.14, 7.36, 8.41, 8.94, 8.58, 9.1, 8.72, 9.4, 9.4, 9.33, 9.6, 9.54, 9.11, 9.11, 9.11, 9.11, 9.11, 9.11, 8.6, 8.6, 8.17, 8.17, 7.74, 7.63, 7.63, 7.94, 8.38, 8.41, 10.28, 10.28, 10.18, 9.83, 9.83, 10.28, 10.28, 9.46, 10.62, 10.68, 11.5, 11.99, 13.19, 14.95, 0.0, -19.91, -11.4, -3.77, 0.0, 0.0, 0.0, 0.0, 0.0, 0.0, 0.0, 2.13, 4.1, 4.1, 4.1, 6.2, 6.2, 5.73, 6.4, 6.4, 6.4, 6.4, 6.4, 6.4, 6.4, 6.4, 7.01, 7.01, 7.36, 7.36, 7.36, 7.36, 7.36, 7.36, 7.36, 7.36, 7.13, 7.13, 7.13, 7.13, 7.69, 7.69, 7.44, 7.44, 6.67, 7.01, 7.01, 6.77, 7.12, 6.56, 6.7, 6.7, 6.7, 5.86, 6.24, 6.67, 7.14, 7.36, 7.9, 8.58, 8.58, 9.1, 8.72, 9.2, 8.8, 9.21, 9.54, 9.54, 9.11, 9.11, 9.11, 9.11, 9.11, 8.6, 8.6, 8.6, 8.17, 8.17, 7.63, 7.63, 7.63, 8.38, 8.38, 8.38, 10.14, 10.14, 10.18, 9.83, 9.39, 9.83, 9.74, 9.74, 9.46, 8.93, 11.2, 11.99, 13.57, 15.69, 15.62, -17.7, -16.36, -9.4, 0.0, 0.0, 0.0, 1.98, 0.0, 0.0, 0.0, 2.2, 2.13, 2.13, 2.13, 5.55, 5.55, 5.55, 5.55, 5.73, 6.4, 6.4, 6.4, 6.4, 6.4, 6.4, 7.01, 7.01, 7.01, 7.01, 6.79, 6.79, 6.79, 7.01, 7.01, 7.01, 7.13, 7.13, 7.13, 7.13, 7.13, 7.13, 6.9, 6.9, 6.67, 6.67, 7.01, 6.77, 6.56, 6.56, 6.33, 6.7, 6.08, 6.24, 6.24, 6.67, 7.14, 7.36, 7.9, 8.15, 8.58, 9.1, 9.2, 9.2, 9.21, 9.21, 9.54, 9.54, 9.11, 9.11, 9.11, 9.11, 8.6, 8.6, 8.6, 8.6, 8.17, 8.17, 7.63, 7.63, 7.47, 7.89, 8.06, 8.06, 8.6, 8.87, 10.62, 10.28, 9.39, 9.39, 9.83, 9.83, 9.83, 10.62, 11.61, 12.46, 14.16, 15.47, 17.97, 0.0, -18.97, -9.8, -3.86, 0.0, 0.0, 2.06, 2.13, 2.2, 0.0, 0.0, 2.13, 2.13, 2.13, 5.55, 5.55, 5.55, 5.55, 5.55, 5.55, 5.55, 6.2, 6.2, 6.2, 6.2, 6.2, 6.79, 6.79, 6.79, 6.79, 6.79, 6.79, 6.79, 6.79, 6.79, 6.79, 6.79, 7.13, 7.13, 7.13, 7.13, 6.9, 6.9, 6.67, 6.67, 7.01, 6.77, 6.21, 6.56, 5.72, 5.72, 6.08, 6.48, 6.67, 5.98, 6.2, 7.36, 7.9, 8.15, 8.15, 8.37, 9.2, 8.8, 9.21, 9.21, 9.54, 9.11, 9.11, 9.11, 9.11, 8.67, 8.6, 8.6, 8.6, 8.6, 8.17, 8.06, 8.06, 8.06, 7.89, 7.89, 8.06, 8.06, 8.22, 9.11, 11.06, 10.28, 10.73, 9.39, 9.83, 9.83, 10.28, 10.73, 11.51, 12.39, 13.75, 15.18, 17.19, 10.4, -18.33, -10.4, -4.77, 0.0, 0.0, 2.43, 2.13, 2.13, 2.13, 1.9, 1.83, 1.83, 1.83, 5.55, 5.55, 5.55, 5.55, 5.55, 5.55, 5.55, 6.2, 6.2, 6.2, 6.2, 6.2, 6.79, 6.79, 6.79, 6.79, 6.79, 6.79, 6.79, 6.79, 6.79, 6.79, 6.79, 6.79, 6.79, 6.79, 6.79, 6.9, 6.9, 6.9, 6.67, 6.1, 6.43, 6.21, 6.56, 5.93, 5.72, 6.08, 5.78, 5.98, 6.45, 6.2, 6.71, 7.59, 8.15, 8.73, 8.37, 8.93, 8.8, 9.21, 9.54, 9.54, 9.11, 9.11, 9.11, 9.11, 8.67, 8.6, 8.6, 8.6, 8.6, 8.17, 8.06, 8.06, 8.06, 7.89, 7.89, 7.6, 8.0, 8.22, 8.22, 9.11, 8.87, 11.18, 9.39, 9.83, 9.83, 10.18, 10.58, 11.03, 11.2, 13.32, 13.97, 16.33, 16.74, -14.63, -14.75, -5.31, 0.0, 0.0, 0.0, 2.89, 2.13, 2.2, 1.9, 2.28, 2.28, 2.28, 5.55, 5.55, 5.55, 5.55, 5.55, 5.55, 5.55, 6.2, 6.2, 6.2, 6.2, 6.2, 6.79, 6.79, 6.79, 6.79, 6.79, 6.79, 6.79, 6.79, 6.79, 6.79, 6.79, 6.79, 6.79, 6.79, 6.79, 6.9, 6.9, 6.9, 6.67, 6.1, 6.43, 6.21, 6.56, 5.93, 5.72, 6.08, 5.78, 5.98, 6.45, 6.2, 6.71, 7.59, 8.15, 8.73, 8.37, 8.93, 8.8, 9.21, 9.54, 9.54, 9.11, 9.11, 9.11, 9.11, 8.67, 8.6, 8.6, 8.6, 8.6, 8.17, 8.06, 8.06, 8.06, 7.89, 7.89, 7.6, 8.0, 8.22, 8.22, 9.11, 8.87, 11.18, 9.39, 9.83, 10.18, 10.18, 10.58, 11.03, 11.2, 12.33, 13.56, 15.47, 16.19, 0.0, -14.22, -10.4, 0.0, 0.0, 0.0, 0.0, 3.16, 2.28, 2.28, 2.35, 2.35, 2.35]}, {"header": {"dx": 0.06612293990616946, "dy": 0.0552356325346848, "nx": 98, "ny": 59, "la1": 35.046912555036876, "la2": 31.78801023549047, "lo1": -121.43107172385933, "lo2": -114.95102361305473, "refTime": "2026041801", "parameterCategory": 1, "parameterNumber": 3}, "data": [-13.51, -12.84, -12.5, -11.76, -11.44, -10.75, -10.75, -10.34, -10.34, -9.89, -8.99, -8.15, -7.16, -4.55, -2.82, -1.39, 0.0, 0.0, 0.0, 0.0, 0.0, 0.0, 0.0, 0.0, 0.0, -1.05, -2.45, -6.5, -11.06, -11.06, -11.51, -12.07, -12.07, -11.62, -10.58, -9.89, -9.89, -9.04, -8.15, -7.56, -7.47, -7.27, -6.45, -7.44, -7.76, -8.0, -8.99, -8.63, -6.26, -4.66, -3.58, -3.69, -3.79, -3.52, -3.62, -1.42, 3.39, 7.98, 9.17, 7.4, 7.2, 4.95, 4.95, 6.8, 7.0, 7.0, 0.0, 0.0, 0.0, 0.0, 2.94, 4.34, 7.4, 0.0, 0.0, 0.0, -14.75, -14.3, -14.75, -14.31, -14.31, -13.28, -11.5, -9.77, -7.54, -7.02, -5.99, -5.2, -4.72, -5.64, -6.51, -7.38, -7.4, -7.8, -7.8, -11.7, -13.59, -15.65, -13.17, -12.84, -12.5, -11.76, -11.44, -11.11, -10.75, -10.75, -10.34, -10.31, -9.16, -9.33, -7.34, -5.08, -4.1, -1.91, -1.52, -1.98, 0.0, -1.58, 0.0, 0.0, 0.0, 0.0, -1.18, -2.42, -3.08, -4.6, -9.6, -12.07, -13.72, -13.41, -11.18, -10.73, -10.14, -8.91, -7.74, -7.81, -7.81, -8.93, -9.46, -8.22, -8.59, -10.1, -10.52, -11.41, -11.26, -8.2, -5.5, -5.04, -5.19, -5.35, -3.79, -4.47, -3.52, 0.0, 3.79, 6.16, 7.2, 5.09, 4.95, 2.5, 2.5, 2.98, 4.81, 0.0, 0.0, 0.0, 0.0, 0.0, 0.0, 0.0, 0.0, 0.0, 0.0, -10.43, -14.75, -14.3, -14.75, -14.31, -14.31, -13.28, -11.5, -9.77, -7.54, -7.02, -5.99, -5.2, -4.72, -5.64, -6.51, -7.38, -7.4, -7.8, -7.8, -11.7, -13.59, -15.65, -13.17, -12.84, -12.5, -11.76, -11.44, -11.11, -10.75, -10.75, -10.34, -10.75, -9.62, -8.67, -8.31, -6.87, -3.68, -2.71, -2.71, -2.6, -2.93, -2.13, -2.82, -2.06, -2.45, 0.0, 0.0, -2.6, -3.45, -3.99, -7.27, -11.09, -14.3, -15.2, -13.86, -10.28, -7.94, -9.21, -8.17, -8.37, -8.79, -10.4, -10.04, -10.82, -11.7, -13.28, -12.46, -11.04, -9.12, -5.92, -6.1, -5.19, -5.35, -5.35, -4.95, -5.35, -2.64, 0.0, 4.18, 4.18, 4.3, 4.95, 2.57, 0.0, 0.0, 0.0, 3.69, 0.0, 0.0, -3.9, -3.24, -3.42, 0.0, 0.0, 0.0, -10.12, -10.12, -10.43, -13.59, -14.75, -14.75, -14.31, -14.31, -13.28, -11.5, -9.77, -8.93, -6.76, -6.16, -6.16, -5.64, -5.86, -7.6, -8.03, -6.54, -5.49, -5.48, -4.66, -13.59, -15.2, -13.53, -12.84, -12.5, -11.76, -11.44, -11.11, -11.06, -11.06, -11.06, -10.75, -10.58, -9.97, -10.12, -6.63, -5.4, -5.2, -4.08, -4.08, -3.68, -3.68, -2.71, -1.84, -1.84, -2.71, -2.82, -2.13, -4.23, -4.2, -5.36, -8.8, -12.07, -13.86, -16.09, -15.78, -14.03, -11.21, -10.79, -10.18, -10.21, -11.6, -12.95, -13.38, -12.63, -10.75, -8.38, -7.95, -7.36, -6.4, -5.48, -5.19, -4.81, -5.35, -5.19, -4.37, 0.0, 2.09, 4.05, 4.18, 2.21, 2.21, 0.0, 0.0, 0.0, 0.0, 3.69, 3.69, 0.0, 0.0, -3.24, -3.59, -4.77, -4.66, -7.8, -12.79, -12.39, -10.12, -11.9, -14.42, -15.2, -14.47, -12.87, -12.87, -12.3, -10.8, -9.67, -8.59, -7.56, -6.97, -6.2, -7.6, -8.68, -6.9, -6.35, -4.66, -3.68, -2.72, -6.4, -14.75, -13.53, -12.84, -12.5, -12.16, -11.44, -11.11, -11.44, -11.06, -11.06, -11.2, -11.07, -10.47, -9.8, -7.28, -7.02, -6.4, -5.64, -5.2, -4.72, -4.72, -5.6, -3.96, -4.32, -3.68, -3.61, -3.82, -4.98, -6.44, -7.9, -7.87, -10.18, -11.11, -11.09, -12.14, -13.28, -13.7, -14.53, -12.39, -13.02, -14.44, -13.34, -10.62, -9.17, -8.83, -8.23, -7.13, -6.4, -6.6, -6.29, -5.19, -5.19, -5.04, -5.04, -3.2, 0.0, 0.0, 2.09, 2.15, 2.15, 0.0, 0.0, 0.0, 0.0, 3.58, 3.58, 3.79, 0.0, 0.0, -4.01, -4.66, -10.0, -10.0, -16.37, -18.24, -15.69, -11.6, -11.53, -11.9, -14.9, -14.11, -13.23, -12.3, -11.2, -10.4, -9.86, -9.46, -9.16, -8.85, -10.89, -11.0, -9.24, -6.54, -6.35, -3.96, -2.81, -1.66, -3.36, -12.79, -13.53, -13.18, -12.84, -12.5, -11.44, -11.44, -11.44, -11.06, -11.47, -11.2, -11.07, -10.62, -10.18, -7.28, -5.99, -6.16, -6.16, -6.4, -6.97, -6.7, -6.4, -6.16, -8.1, -7.78, -7.24, -8.22, -8.53, -8.85, -10.12, -10.41, -8.58, -8.48, -9.21, -10.0, -10.24, -12.39, -12.74, -10.61, -13.02, -12.72, -11.34, -11.53, -10.52, -8.31, -6.73, -6.95, -5.99, -4.24, -2.89, -2.56, -2.56, -2.56, -2.81, -1.58, 0.0, 0.0, 0.0, 0.0, 0.0, 0.0, 0.0, 0.0, 3.36, 3.47, 3.9, 3.24, 0.0, 0.0, -3.9, -3.51, -8.14, -10.6, -16.75, -19.52, -18.65, -16.91, -11.6, -11.99, -12.39, -14.3, -12.35, -11.45, -11.09, -11.09, -10.88, -10.61, -11.44, -14.3, -14.93, -12.22, -11.06, -9.24, -5.45, -4.1, -4.24, -2.91, -2.2, -9.8, -13.53, -13.18, -13.18, -12.5, -11.76, -11.44, -11.44, -11.44, -11.47, -11.6, -11.57, -10.62, -10.18, -6.63, -7.19, -6.16, -6.4, -6.63, -6.7, -7.41, -6.92, -7.19, -8.31, -8.87, -9.17, -8.22, -10.73, -10.35, -11.21, -9.32, -9.86, -8.17, -7.82, -7.51, -8.41, -10.37, -11.64, -11.62, -10.96, -10.23, -11.95, -12.71, -11.44, -6.8, 0.0, 0.0, 1.73, 1.56, 2.81, 1.77, 3.1, 2.56, 1.47, 0.0, 0.0, 0.0, 0.0, 0.0, 0.0, 0.0, 0.0, 0.0, 3.36, 3.79, 3.16, 3.24, 0.0, 0.0, -2.98, -3.16, -3.68, -7.8, -11.04, -16.45, -17.97, -17.1, -14.9, -11.62, -12.04, -13.15, -12.39, -12.89, -12.74, -14.23, -14.39, -15.24, -16.3, -16.68, -16.01, -13.92, -12.33, -9.71, -7.11, -6.0, -6.0, -4.1, -3.56, -7.44, -13.53, -13.18, -13.18, -12.45, -12.11, -11.77, -11.44, -11.82, -11.88, -12.05, -11.9, -10.99, -10.55, -8.44, -7.44, -6.45, -6.94, -6.0, -6.44, -6.08, -5.6, -5.18, -5.55, -5.73, -5.81, -5.8, -6.44, -5.6, -3.53, -7.9, -8.8, -9.86, -9.32, -6.7, -5.54, -3.92, -5.99, -5.2, 0.0, -11.62, -11.62, 0.0, 5.8, 9.8, 10.43, 9.17, 8.93, 7.71, 7.28, 7.38, 5.8, 6.57, 6.18, 2.56, 0.0, -2.02, -1.96, -2.28, -2.2, 0.0, 0.0, 0.0, 0.0, 0.0, 3.07, 3.24, 2.72, 0.0, 0.0, 0.0, -2.65, -3.09, -3.16, -7.8, -13.59, -14.3, -14.75, -13.59, -11.5, -13.99, -16.37, -15.18, -14.65, -14.39, -15.93, -16.8, -17.06, -16.01, -14.91, -14.19, -11.8, -9.17, -8.73, -7.79, -6.87, -5.4, -5.11, -6.0, -13.18, -13.18, -13.18, -12.45, -12.11, -11.77, -11.77, -11.82, -11.88, -12.05, -12.18, -11.77, -12.81, -10.73, -9.48, -9.17, -9.48, -7.44, -7.19, -6.08, -6.94, -6.43, -5.8, -4.89, -4.28, -2.82, -1.45, 0.0, 0.0, 0.0, -5.98, -10.73, -9.8, 6.0, 6.44, 3.77, 1.98, 3.96, 11.6, 8.85, 6.7, 8.85, 8.85, 9.48, 9.16, 8.51, 9.61, 9.24, 8.33, 8.11, 7.0, 5.62, 5.15, 3.22, 0.0, -3.93, -4.24, -2.06, -2.06, -2.06, 0.0, 0.0, 0.0, 0.0, 0.0, 0.0, 0.0, 0.0, 0.0, 0.0, 0.0, -2.34, -3.09, -2.65, -10.12, -13.86, -13.41, -12.79, -13.57, -15.27, -17.2, -15.08, -14.23, -13.59, -14.39, -14.03, -14.03, -11.54, -9.8, -10.18, -9.84, -9.5, -8.85, -8.44, -7.28, -5.99, -5.11, -6.0, -13.18, -13.18, -13.18, -12.78, -12.45, -12.11, -11.77, -11.82, -12.22, -12.37, -12.42, -12.03, -11.04, -11.04, -11.9, -11.09, -11.09, -11.09, -10.65, -8.85, -8.53, -8.01, -8.59, -7.93, -7.1, -3.92, -1.22, 0.0, 0.0, 0.0, 0.0, 3.58, 14.75, 13.59, 10.01, 3.68, 1.52, 2.7, 6.97, 6.94, 6.45, 6.92, 6.92, 6.45, 5.86, 7.44, 6.2, 6.8, 7.92, 7.4, 5.62, 5.46, 4.81, 2.18, -1.58, -4.52, -2.2, -1.98, -1.91, -1.98, -2.2, -3.24, -4.12, -3.9, 0.0, 0.0, 0.0, 0.0, -1.72, -1.9, -3.81, -3.69, -4.54, -2.43, -6.0, -12.71, -12.52, -12.96, -12.89, -14.61, -17.26, -18.33, -14.31, -12.98, -11.26, -9.82, -9.16, -8.85, -8.24, -7.51, -7.51, -8.22, -8.53, -8.53, -8.87, -7.19, -4.24, -6.2, -13.18, -13.18, -13.18, -12.78, -12.45, -12.11, -11.77, -11.82, -12.62, -12.37, -12.41, -12.65, -12.0, -10.99, -10.75, -10.43, -11.09, -10.79, -10.73, -10.43, -9.42, -8.85, -7.34, -5.8, -3.68, -1.64, 0.0, 0.0, 2.28, 2.43, 1.96, 5.0, 7.56, 6.42, 3.32, 0.0, 0.0, 3.68, 6.16, 6.72, 6.31, 6.08, 5.57, 5.2, 4.75, 6.4, 6.3, 5.45, 5.31, 5.48, 5.5, 5.37, 5.23, 1.5, -4.01, -7.6, -7.2, -5.8, -5.0, -6.4, -8.0, -8.97, -4.01, 0.0, 0.0, 0.0, -3.01, -5.04, -6.16, -4.39, -6.2, -7.1, -5.81, -6.2, -4.98, -11.53, -12.52, -12.52, -12.35, -14.16, -15.93, -17.88, -17.43, -14.65, -11.64, -10.91, -10.18, -9.17, -8.24, -6.7, -6.45, -6.16, -6.5, -5.77, -5.81, -5.23, -2.28, -2.81, -13.18, -13.49, -13.49, -12.78, -12.45, -12.11, -12.14, -11.82, -12.62, -12.62, -12.65, -12.27, -12.37, -11.5, -9.27, -7.26, -5.57, -6.21, -7.19, -6.67, -5.55, -3.36, -1.11, 0.0, 0.0, 0.0, 0.0, 2.28, 3.25, 1.76, 1.52, 4.36, 4.6, 3.61, 1.14, 0.0, 0.86, 3.68, 5.57, 5.4, 5.06, 5.06, 4.47, 4.24, 4.4, 4.08, 4.1, 4.98, 4.38, 4.66, 4.81, 6.47, 4.82, 0.0, -7.4, -13.59, -14.22, -10.87, -7.9, -9.8, -11.45, -4.66, 0.0, 0.0, 0.0, 0.0, 0.0, -5.42, -9.0, -8.53, -8.05, -8.31, -8.18, -7.36, -8.31, -10.79, -12.96, -13.41, -14.11, -15.05, -15.2, -16.09, -16.99, -16.37, -15.91, -14.78, -12.16, -9.8, -9.42, -7.44, -6.21, -4.44, -4.15, -2.62, -1.61, -1.83, 0.0, 0.0, -13.49, -13.49, -13.49, -13.11, -12.77, -12.11, -12.49, -12.52, -12.22, -12.62, -12.65, -12.65, -12.26, -11.88, -10.47, -7.89, -5.91, -4.71, -4.24, -3.57, -2.89, -0.95, 0.0, 0.0, 0.0, 0.84, 1.72, 2.56, 2.81, 1.97, 0.0, 2.1, 2.23, 1.14, 1.02, 1.07, 1.76, 3.53, 3.82, 3.68, 3.42, 3.42, 3.68, 3.98, 3.25, 2.1, 2.63, 2.54, 5.15, 4.52, 4.38, 2.89, 1.51, 0.0, 0.0, 0.0, 0.0, -10.0, -12.81, -12.35, 0.0, 16.99, 16.05, 8.68, 4.55, 0.0, 0.0, 0.0, -6.07, -12.42, -15.17, -13.76, -10.12, -10.47, -10.73, -12.79, -14.75, -15.65, -15.34, -15.87, -15.05, -15.05, -16.54, -17.33, -15.18, -15.59, -15.16, -12.52, -10.01, -8.68, -7.59, -4.99, -3.82, -2.37, -1.29, 0.0, 0.0, 0.0, -13.49, -13.49, -13.49, -12.77, -12.77, -12.49, -12.49, -12.52, -12.22, -12.62, -12.62, -12.26, -12.26, -11.88, -10.95, -9.37, -7.2, -5.67, -4.66, -3.1, -2.43, -1.68, -0.89, 0.0, 0.0, 0.0, 0.89, 1.88, 1.88, 2.01, 0.99, 0.0, 0.0, 0.0, 0.98, 1.02, 0.89, 1.92, 1.92, 2.0, 1.84, 1.92, 2.71, 1.45, 1.62, 0.0, 1.45, 4.65, 5.31, 4.98, 4.38, 2.35, 0.0, 3.58, 11.38, 13.76, 11.06, 0.0, -21.46, -9.48, 13.28, 15.65, 14.94, 13.23, 10.89, 5.37, 2.11, 2.38, 3.45, 0.0, -11.4, -18.23, -15.19, -11.2, -12.27, -14.53, -16.09, -16.54, -16.99, -16.09, -14.99, -15.05, -16.88, -18.22, -15.34, -16.54, -15.99, -14.03, -11.8, -10.01, -7.82, -5.18, -3.97, -3.73, -2.4, -1.6, -1.47, -1.33, -13.49, -13.49, -13.49, -13.14, -13.14, -12.84, -12.49, -12.87, -12.52, -12.62, -12.62, -12.62, -12.3, -11.88, -11.38, -10.33, -8.99, -7.2, -6.24, -4.71, -3.87, -3.3, -2.57, -1.64, -0.82, 0.0, 0.0, 0.95, 1.94, 1.94, 1.89, 0.0, 0.0, 0.0, 0.0, 0.0, 1.52, 3.11, 2.71, 1.84, 0.97, 1.23, 0.0, 0.0, 0.0, 1.62, 3.82, 5.75, 5.98, 4.48, 4.1, 2.06, 1.91, 5.52, 6.17, 6.71, 3.07, -1.73, -7.57, 8.0, 12.3, 12.33, 10.99, 10.43, 8.68, 6.8, 6.6, 6.8, 8.28, 6.08, 0.0, -8.98, -17.11, -15.69, -15.18, -16.09, -17.43, -17.43, -16.99, -16.99, -16.66, -15.77, -15.49, -15.55, -15.99, -17.02, -15.69, -13.39, -12.5, -11.2, -8.58, -6.94, -5.4, -4.81, -3.85, -2.63, -2.54, -2.54, -13.49, -13.14, -13.14, -13.14, -12.84, -12.84, -12.49, -12.87, -12.52, -12.22, -12.62, -12.62, -12.3, -11.88, -11.79, -10.95, -9.37, -8.39, -7.4, -6.42, -5.56, -3.98, -3.13, -2.5, -1.68, 0.0, 0.0, 0.87, 1.78, 1.73, 0.87, 0.0, 0.0, 0.0, 0.0, 0.0, 2.23, 2.95, 1.33, 1.33, 0.0, 0.0, 0.0, 0.0, 0.0, 1.93, 4.6, 6.44, 7.59, 5.75, 3.68, 3.96, 3.82, 3.68, 3.25, 1.62, 0.0, 0.0, 0.0, 6.54, 9.27, 8.24, 7.85, 5.69, 5.1, 5.81, 7.82, 6.88, 6.4, 5.16, 0.0, -7.06, -17.53, -17.11, -0.0, 0.0, -18.33, -17.78, -17.88, -17.88, -17.97, -17.02, -17.1, -15.05, -13.28, -13.01, -14.4, -11.78, -11.03, -10.99, -9.8, -7.24, -6.3, -4.98, -4.58, -4.43, -3.29, -3.29, -13.49, -13.49, -13.14, -13.14, -12.84, -12.84, -12.49, -12.87, -12.52, -12.22, -12.22, -12.22, -11.88, -11.88, -11.06, -10.95, -10.05, -9.12, -8.03, -7.4, -5.72, -4.85, -4.31, -2.57, 0.0, 0.0, 0.85, 0.85, 0.0, 0.0, 0.0, 0.0, -0.89, -1.33, -0.93, 0.0, 0.0, 0.0, 0.0, 0.0, 0.0, 0.0, 0.0, 1.11, 1.69, 3.82, 6.17, 7.59, 7.59, 5.52, 4.8, 3.53, 3.19, 3.19, 3.07, 1.39, 1.39, 0.0, 2.72, 6.51, 7.69, 6.94, 5.64, 4.54, 3.39, 2.47, 3.61, 4.67, 2.09, 0.0, -6.75, -13.28, -17.78, 13.59, 18.78, 16.6, 0.0, -17.81, -18.21, -18.33, -18.33, -17.53, -15.77, -15.43, -11.95, -10.18, -10.41, -12.3, -12.25, -11.75, -10.43, -8.85, -8.24, -7.44, -6.73, -5.6, -4.81, -4.81, -13.49, -13.49, -13.49, -13.14, -12.84, -12.84, -12.84, -12.87, -12.87, -12.22, -12.22, -12.22, -11.88, -11.88, -11.5, -10.61, -10.05, -9.12, -8.16, -6.85, -5.09, -4.31, -3.39, -1.78, 0.0, 0.0, 0.0, 0.0, -0.87, -1.73, -1.83, -1.78, -2.64, -2.54, -2.62, -2.37, -2.42, -1.58, -1.69, 0.0, 0.0, 0.0, 0.0, 2.02, 3.98, 5.52, 7.59, 6.7, 5.52, 4.8, 4.8, 2.95, 2.95, 2.95, 2.95, 2.6, 2.71, 2.71, 3.53, 4.72, 5.64, 5.4, 4.32, 3.53, 2.33, 2.39, 1.54, 0.0, -1.83, -3.79, -6.26, -7.06, 0.0, 15.28, 14.13, 11.7, 8.65, -8.8, -20.12, -18.78, -18.33, -17.64, -15.69, -13.72, -13.28, -12.04, -12.14, -12.14, -12.72, -12.79, -11.64, -10.55, -8.53, -8.24, -7.78, -6.87, -6.3, -6.3, -13.49, -13.49, -13.49, -13.18, -12.84, -12.84, -13.23, -13.23, -12.87, -12.22, -12.22, -12.22, -11.88, -11.88, -11.5, -12.33, -9.89, -9.25, -7.82, -6.09, -4.19, -4.43, -4.41, -3.9, -1.34, 0.0, -1.96, -2.5, -3.58, -3.8, -4.15, -4.15, -4.66, -4.24, -4.36, -3.68, -3.82, -4.64, -3.21, -1.52, 0.0, 0.0, 0.0, 1.84, 3.82, 5.0, 4.8, 4.8, 4.8, 3.39, 2.95, 2.95, 2.95, 2.95, 1.52, 1.33, 1.33, 2.6, 4.08, 3.68, 3.68, 3.34, 3.34, 2.31, 1.56, 0.82, 0.0, 0.0, -0.86, 0.0, 0.0, 2.84, 7.49, 11.25, 10.66, 7.58, 4.7, 0.0, -9.89, -19.29, -16.54, -17.19, -16.82, -16.86, -17.3, -16.91, -16.74, -15.59, -15.07, -13.48, -13.19, -11.75, -10.24, -9.3, -9.8, -9.31, -8.05, -8.05, -13.88, -13.49, -13.18, -12.84, -13.23, -13.23, -13.23, -13.23, -12.57, -12.57, -12.22, -12.22, -11.88, -11.88, -11.47, -11.06, -10.31, -10.43, -9.77, -7.28, -7.12, -6.85, -7.2, -7.92, -7.49, -6.1, -4.89, -4.38, -5.04, -5.35, -6.47, -6.02, -5.5, -4.99, -4.81, -4.81, -4.81, -4.64, -3.42, -1.77, -0.92, 0.0, 0.77, 2.19, 4.33, 4.08, 2.82, 2.82, 2.82, 2.82, 2.82, 2.82, 1.45, 1.52, 0.98, 1.02, 1.39, 2.71, 2.82, 2.62, 2.52, 2.42, 1.23, 1.07, 0.0, 0.0, 0.0, 0.0, 0.0, 0.0, 2.53, 5.18, 9.3, 9.3, 5.65, 1.37, 0.0, 0.0, -9.2, -17.85, -16.96, -16.96, -18.14, -17.7, -17.74, -16.48, -13.81, -12.56, -15.07, -12.25, -12.39, -12.79, -11.99, -11.26, -11.44, -10.75, -10.43, -10.43, -13.88, -13.88, -13.59, -13.23, -13.23, -13.23, -13.23, -13.23, -12.57, -12.57, -12.22, -12.22, -11.88, -11.88, -11.47, -11.38, -10.61, -10.43, -9.8, -10.77, -9.73, -8.46, -9.81, -10.4, -10.22, -8.28, -5.48, -5.14, -4.66, -4.0, -4.37, -5.99, -6.2, -6.4, -6.63, -6.94, -6.94, -4.99, -3.82, -2.72, -0.86, 0.0, 0.0, 1.5, 2.62, 1.5, 1.45, 1.45, 1.45, 1.45, 1.45, 1.45, 0.0, 0.0, 0.0, 1.02, 2.0, 3.82, 3.82, 2.52, 1.28, 1.28, 0.0, 0.0, 0.0, 0.0, 0.0, 0.0, 0.0, 1.19, 5.37, 9.11, 9.51, 4.12, 0.0, -1.48, 0.0, 3.67, 0.0, -13.91, -17.39, -17.2, -16.76, -13.41, -13.72, -13.72, -13.32, -12.98, -12.66, -11.03, -10.8, -12.81, -12.42, -12.39, -12.13, -11.2, -11.2, -11.2, -13.88, -13.88, -13.59, -13.23, -13.23, -13.23, -13.23, -13.23, -12.57, -12.57, -12.22, -12.22, -11.82, -11.47, -11.47, -11.38, -11.38, -10.75, -11.17, -11.06, -9.67, -8.4, -9.06, -10.75, -10.92, -9.78, -7.2, -5.18, -3.69, -3.22, -3.47, -2.63, -4.39, -4.75, -6.94, -7.28, -6.63, -5.86, -4.43, -4.1, -2.81, -1.71, -0.77, 0.0, 0.93, 0.97, 0.0, 0.0, 0.0, 0.0, 0.0, 0.0, 0.0, 0.0, 0.0, 3.07, 4.72, 5.99, 4.9, 2.71, 1.92, 0.93, 0.0, 0.0, -0.79, -0.85, -0.97, -1.01, 0.0, 5.8, 10.99, 13.25, 11.66, 2.94, -4.1, 0.0, 7.8, 8.2, 9.46, 0.0, -17.59, -16.31, -16.54, -15.65, -14.75, -14.64, -14.31, -14.23, -13.89, -10.55, -11.6, -12.79, -12.81, -13.19, -12.79, -12.13, -12.0, -12.0, -13.88, -13.88, -13.59, -13.23, -13.23, -13.23, -13.23, -13.23, -12.57, -12.57, -12.57, -12.22, -11.82, -11.47, -11.47, -11.79, -11.38, -10.61, -11.06, -10.95, -9.52, -8.22, -7.93, -9.06, -10.75, -9.67, -8.93, -7.0, -5.34, -4.52, -3.68, -2.92, -1.98, -3.6, -4.1, -5.08, -5.08, -4.65, -3.41, -3.29, -2.06, -1.84, -0.89, -0.93, 0.0, 0.0, 0.0, 0.0, 0.0, 0.0, 0.0, 0.0, 0.0, 0.0, 1.69, 3.39, 5.92, 6.94, 5.8, 3.36, 1.76, 0.0, 0.0, -0.85, -0.85, -0.97, -1.01, 0.0, 4.05, 9.48, 10.12, 9.42, 4.75, 0.0, -0.0, -0.0, 0.0, 0.0, 0.0, 0.0, -14.86, -17.97, -16.54, -16.09, -15.2, -14.64, -14.84, -14.84, -16.12, -16.44, -14.39, -12.39, -11.64, -12.81, -12.79, -12.79, -11.28, -11.28, -13.88, -13.88, -13.59, -13.59, -13.23, -13.23, -13.23, -13.23, -12.57, -12.57, -12.57, -12.22, -11.82, -11.47, -11.79, -11.79, -11.38, -11.06, -10.65, -10.47, -9.78, -8.93, -7.54, -7.93, -9.34, -9.73, -9.27, -8.05, -7.36, -6.09, -4.66, -3.57, -2.72, -2.81, -3.14, -3.04, -2.93, -2.13, -2.32, -2.06, -2.06, -1.98, -1.0, -1.0, -1.05, -1.01, -1.55, -1.44, -1.58, 0.0, 0.0, 0.0, 1.45, 1.62, 3.25, 5.29, 4.88, 5.2, 5.11, 4.08, 1.75, 0.0, 0.0, 0.0, 0.0, 0.0, 1.18, 5.2, 7.47, 8.23, 5.98, 0.0, 2.09, 5.53, 7.6, 0.0, 0.0, 0.0, -10.12, -6.6, -11.65, -15.38, -17.39, -17.74, -17.88, -17.33, -17.77, -17.89, -18.21, -17.19, -15.2, -11.64, -11.28, -11.64, -11.28, -12.39, -11.64, -11.64, -13.59, -13.59, -13.59, -13.59, -13.23, -13.23, -12.87, -12.87, -12.57, -12.57, -12.22, -12.22, -11.82, -11.79, -11.79, -11.79, -11.38, -11.06, -10.95, -10.47, -10.33, -9.52, -7.67, -7.15, -7.97, -8.18, -8.43, -8.65, -7.54, -6.43, -5.48, -4.66, -3.57, -3.56, -2.72, -1.9, -1.84, -1.08, -1.08, -1.04, -1.0, -1.0, -1.0, -0.97, -1.91, -2.82, -3.55, -2.34, -1.52, -0.8, 0.0, 0.0, 1.45, 1.45, 3.25, 3.65, 3.65, 2.58, 1.91, 1.64, 2.6, 1.75, 0.99, 2.13, 3.11, 3.11, 5.69, 7.9, 8.41, 4.6, 1.33, 0.0, 2.18, 4.35, 2.27, 0.0, 0.0, 0.0, 0.0, -13.41, -10.12, -6.5, -11.65, -21.17, -20.56, -20.56, -20.85, -20.4, -18.19, -15.18, -16.48, -13.99, -10.91, -10.99, -10.18, -10.91, -11.26, -11.26, -13.59, -13.59, -13.59, -13.59, -13.23, -13.23, -13.23, -12.87, -12.57, -12.22, -12.22, -12.22, -11.82, -11.79, -11.79, -11.79, -11.38, -11.06, -10.95, -10.95, -10.47, -9.52, -9.52, -7.67, -7.36, -6.8, -6.99, -7.43, -6.99, -6.99, -6.6, -5.63, -4.66, -3.68, -2.62, -2.81, -2.06, -1.04, -1.04, -1.04, -1.0, -1.0, -1.84, -1.77, -1.77, -2.61, -3.19, -3.07, -2.88, -2.19, -1.42, -0.68, 0.0, 0.0, 0.0, 1.76, 1.84, 1.84, 0.0, 0.0, 1.44, 2.71, 2.7, 2.57, 2.97, 4.4, 7.27, 8.94, 7.27, 4.8, 1.23, 0.0, 0.0, 2.04, 2.38, 0.0, -22.35, -0.0, -0.0, -0.0, 12.79, 15.2, 19.95, 0.0, -19.29, -18.78, -18.78, -18.33, -14.75, -14.66, -16.05, -15.19, -13.27, -12.51, -10.52, -10.3, -10.79, -10.79, -13.63, -13.63, -13.63, -13.63, -13.63, -13.23, -13.23, -12.87, -12.22, -12.22, -12.22, -12.22, -11.82, -11.47, -11.79, -11.79, -11.38, -11.38, -11.38, -10.95, -10.47, -10.05, -9.52, -8.68, -7.67, -7.36, -6.8, -6.99, -6.18, -5.99, -5.99, -5.33, -5.16, -4.1, -3.96, -2.93, -1.98, -1.98, -1.98, -1.91, -1.91, -1.77, -1.77, -1.77, -2.51, -2.34, -3.07, -3.61, -3.39, -3.25, -2.65, -2.76, -2.1, -2.25, -1.05, 0.0, 0.0, 0.0, 0.0, 0.0, 1.64, 1.84, 2.42, 1.84, 2.95, 5.1, 7.9, 7.9, 5.92, 3.68, 1.2, 0.0, -1.3, 0.0, 0.0, 0.0, -25.03, -6.08, -0.0, 6.2, 10.8, 13.88, 15.2, 18.85, 0.0, -19.67, -19.67, -15.65, -15.2, -14.64, -14.42, -15.69, -15.59, -14.39, -12.0, -10.3, -9.96, -9.96, -13.63, -13.63, -13.63, -13.63, -13.63, -13.63, -13.23, -12.87, -12.52, -12.22, -12.22, -12.22, -12.22, -11.79, -11.79, -11.79, -11.38, -11.38, -11.38, -11.38, -10.47, -10.47, -9.25, -9.25, -8.68, -8.05, -7.36, -6.43, -6.6, -5.63, -5.99, -4.97, -5.16, -4.1, -3.82, -2.93, -2.82, -1.91, -1.91, -1.91, -1.84, -2.51, -1.7, -1.63, -1.39, -2.06, -2.7, -3.61, -3.25, -3.11, -3.25, -3.25, -3.25, -3.39, -2.82, -2.19, 0.0, 0.0, 0.0, 0.0, 0.0, 0.0, 0.0, 0.0, 2.23, 7.26, 7.9, 5.45, 3.25, 1.16, 0.0, -1.13, -2.32, -2.72, -1.47, -2.91, 0.0, -6.22, -0.0, 9.8, 10.18, 13.96, 15.65, 14.16, 17.43, 9.4, -16.54, -16.09, -15.65, -15.11, -14.4, -15.07, -15.49, -16.54, -14.79, -12.73, -10.99, -10.99, -13.63, -13.63, -13.63, -13.63, -13.63, -13.63, -13.26, -12.87, -12.52, -12.22, -12.22, -12.22, -12.22, -12.22, -11.79, -11.79, -11.38, -11.38, -11.06, -10.61, -10.47, -10.18, -9.67, -9.67, -8.68, -8.43, -7.82, -7.15, -6.6, -5.63, -5.99, -4.97, -4.81, -4.65, -3.96, -2.93, -2.82, -1.91, -1.84, -2.71, -2.51, -2.51, -2.6, -2.19, -1.07, -0.75, -1.97, -3.11, -4.2, -3.65, -3.65, -3.65, -3.65, -3.87, -4.31, -4.07, -3.53, -1.76, 0.0, 0.0, 0.0, -0.93, -0.85, 0.0, 4.4, 9.3, 7.9, 5.45, 2.13, 0.0, -2.37, -2.48, -2.4, -4.12, -5.65, -4.88, 9.6, 20.56, -0.0, 9.67, 12.87, 13.33, 16.09, 14.75, 13.15, 13.7, 12.33, -15.99, -16.76, -15.53, -15.08, -15.18, -15.07, -14.84, -16.54, -14.79, -13.2, -13.2, -13.26, -13.26, -13.26, -13.26, -13.26, -13.26, -13.26, -13.26, -12.52, -12.22, -12.22, -12.22, -12.22, -11.88, -12.22, -11.88, -11.38, -11.06, -10.61, -10.61, -10.61, -10.18, -9.67, -9.39, -9.39, -8.83, -8.22, -7.32, -6.6, -6.4, -5.63, -5.81, -4.81, -4.65, -3.68, -3.55, -2.61, -2.71, -2.71, -2.51, -2.41, -3.16, -3.39, -3.25, -2.49, -0.97, -0.85, -2.63, -4.2, -4.96, -4.96, -4.73, -4.2, -3.93, -4.71, -5.46, -3.81, -2.04, 0.0, 0.0, 0.0, -1.84, -0.97, 2.71, 8.15, 7.59, 7.27, 7.26, 2.58, -1.22, -3.61, -4.24, -3.07, -3.33, -4.75, -4.55, 14.54, 21.9, 17.19, 16.74, 18.79, 16.99, 15.65, 15.49, 13.75, 14.11, 13.7, 12.96, 0.0, -13.59, -17.62, -16.91, -16.32, -16.05, -14.84, -16.74, -14.36, -14.36, -13.26, -13.26, -13.26, -13.26, -13.26, -13.26, -13.26, -13.26, -12.89, -12.22, -12.22, -12.22, -12.22, -11.88, -11.88, -11.88, -11.5, -11.06, -10.61, -10.61, -10.61, -10.11, -9.82, -9.39, -9.39, -8.83, -8.57, -7.98, -7.1, -6.4, -5.63, -5.63, -4.66, -4.81, -3.81, -3.68, -2.71, -2.51, -2.51, -3.16, -3.16, -3.16, -3.02, -3.25, -4.07, -3.08, -1.69, -1.33, -1.68, -2.83, -3.49, -3.81, -4.2, -4.83, -5.63, -6.11, -4.98, -3.11, -1.04, 0.0, -1.14, -1.07, 0.0, 6.24, 5.98, 4.88, 3.25, 5.4, 2.6, 0.0, -2.69, -1.45, 0.0, 0.0, -4.38, -4.45, 17.35, 16.82, 18.41, 17.11, 17.85, 18.65, 16.09, 15.65, 15.27, 14.79, 13.8, 12.52, 10.46, 3.33, -5.64, -12.65, -15.91, -17.35, -16.05, -15.61, -16.44, -16.44, -13.26, -13.26, -13.26, -13.26, -13.26, -13.26, -13.26, -13.26, -12.89, -12.62, -12.22, -12.22, -12.22, -11.88, -11.88, -11.88, -11.5, -11.5, -10.61, -10.61, -10.61, -10.11, -9.82, -9.82, -9.82, -8.99, -8.57, -7.89, -7.06, -6.36, -6.57, -6.4, -5.46, -5.28, -4.81, -4.65, -3.68, -3.42, -3.29, -3.16, -3.16, -3.16, -3.02, -3.95, -4.6, -4.31, -3.25, -1.3, -0.62, -0.67, -0.72, -0.78, -1.84, -2.97, -2.97, -4.66, -3.3, -2.04, -2.04, -1.84, -1.18, 0.0, 3.61, 3.11, 2.49, 1.16, 0.0, 0.0, 0.0, 0.0, 1.39, 2.82, 4.1, 2.53, 0.0, -2.66, 14.84, 11.12, 11.88, 13.95, 10.66, 8.0, 12.01, 16.54, 16.48, 14.95, 13.61, 12.01, 7.4, 2.81, 0.0, -6.6, -13.39, -15.47, -17.35, -16.41, -16.05, -16.05, -13.27, -13.27, -13.65, -13.65, -13.26, -13.26, -13.26, -13.26, -12.89, -12.62, -12.62, -12.22, -12.22, -12.22, -11.88, -11.88, -11.5, -11.5, -11.06, -11.06, -10.61, -9.82, -9.82, -9.82, -9.53, -8.99, -8.72, -8.72, -7.63, -7.59, -6.53, -6.76, -6.76, -6.36, -5.62, -5.43, -4.49, -4.33, -4.17, -4.3, -4.13, -3.85, -3.69, -3.69, -3.95, -4.31, -3.46, -2.53, -1.24, -1.16, -0.62, -0.62, -1.43, -1.54, -1.68, -0.85, -0.93, -0.93, -0.93, -0.93, 0.0, 1.28, 1.84, 1.39, 1.22, 0.0, 0.0, -1.26, 0.0, 0.0, 2.33, 3.39, 2.42, 1.46, 0.0, 0.0, 3.33, 11.99, 10.12, 10.12, 8.68, -0.0, -0.0, -0.0, 17.88, 17.81, 15.38, 11.17, 7.4, 0.0, 0.0, -2.2, -8.94, -15.19, -15.04, -15.05, -15.97, -15.97, -13.27, -13.27, -13.27, -13.65, -13.65, -13.26, -13.26, -13.26, -12.89, -12.62, -12.62, -12.62, -12.22, -12.22, -11.88, -11.88, -11.5, -11.5, -11.06, -11.06, -10.75, -9.82, -9.82, -9.82, -9.53, -8.99, -8.72, -8.72, -8.72, -7.26, -6.15, -6.53, -6.96, -6.53, -6.53, -5.8, -5.8, -5.6, -4.64, -4.47, -4.3, -4.13, -4.13, -3.69, -3.69, -3.69, -3.69, -3.46, -2.53, -2.53, -1.84, -1.84, -1.33, -1.43, -1.54, -0.85, -0.93, -0.93, -0.89, -1.04, 0.0, 0.0, 2.1, 0.0, 0.0, 0.0, 0.0, -1.39, 0.0, 0.0, 1.23, 3.32, 1.71, 0.0, 0.0, 0.0, 0.0, 9.92, 11.38, 11.38, 8.93, -0.0, -5.51, -12.33, -12.33, 0.0, 13.59, 4.45, 0.0, 0.0, 0.0, -2.54, -4.1, -10.75, -15.19, -14.6, -15.93, -15.93, -13.27, -13.27, -13.27, -13.27, -13.27, -13.65, -13.26, -12.89, -12.89, -12.62, -12.62, -12.26, -12.62, -12.62, -12.3, -12.3, -11.5, -11.5, -11.5, -10.75, -10.75, -10.27, -9.82, -9.53, -9.53, -8.72, -8.72, -8.72, -8.72, -7.74, -6.88, -5.43, -5.8, -5.6, -6.21, -6.21, -6.21, -5.99, -5.6, -4.64, -4.47, -4.3, -4.13, -3.95, -3.69, -3.69, -3.69, -3.46, -3.31, -2.53, -2.53, -2.58, -2.11, -2.28, -1.68, -0.89, -0.89, -0.99, 0.0, 0.0, 0.0, 0.0, 2.1, 2.1, 0.0, 0.0, 0.0, 0.0, 0.0, 0.0, 1.33, 0.0, 0.0, 0.0, 0.0, 0.0, 0.0, 0.0, 8.4, 12.96, 5.51, -0.0, -5.23, -9.17, -11.7, -12.01, -17.88, -7.2, -3.58, -3.36, -3.25, -2.63, -4.98, -6.9, -12.22, -16.31, -15.65, -15.65, -13.27, -13.27, -13.27, -13.27, -13.27, -13.27, -13.27, -13.27, -12.89, -12.62, -12.62, -12.26, -12.26, -12.3, -12.3, -12.3, -11.94, -11.6, -11.17, -10.75, -10.75, -10.75, -9.97, -9.97, -9.97, -8.72, -8.72, -8.72, -8.72, -8.14, -6.88, -6.0, -5.43, -5.25, -4.81, -5.18, -5.18, -5.18, -5.18, -4.99, -4.99, -4.81, -4.3, -3.39, -3.95, -3.69, -3.69, -3.46, -3.31, -3.31, -3.31, -2.58, -2.76, -2.28, -1.68, -1.84, -0.99, 0.0, 0.0, 0.0, 0.0, 0.0, 0.0, 0.0, 0.0, 0.0, 1.28, 0.0, 0.0, 0.0, 0.0, 0.0, 0.0, 1.37, 0.0, 0.0, 0.0, 0.0, 0.0, 20.56, -0.0, -0.0, -8.43, -10.43, -10.43, -12.27, -14.75, -13.57, -9.8, -8.31, -8.31, -5.15, -4.98, -6.9, -9.48, -14.53, -16.54, -16.54, -12.89, -12.89, -12.89, -12.89, -13.27, -13.27, -13.27, -13.27, -13.02, -12.65, -12.62, -12.26, -12.26, -11.95, -11.95, -11.95, -11.6, -11.6, -11.6, -11.17, -10.75, -10.43, -9.97, -9.97, -9.97, -9.67, -8.72, -8.45, -8.45, -7.89, -7.89, -7.03, -6.0, -5.43, -5.25, -4.81, -4.81, -5.18, -5.18, -4.99, -4.81, -4.81, -4.44, -3.39, -3.36, -3.95, -3.69, -4.05, -3.87, -3.87, -3.31, -3.37, -2.97, -3.21, -2.7, -1.94, -0.99, 0.0, 0.0, 0.0, 0.0, 0.0, 0.0, 0.0, 0.0, 0.0, 0.0, 0.0, 0.0, -1.33, -1.44, 0.0, 0.0, 0.0, 0.0, 0.0, -1.42, -1.54, 0.0, 0.0, -0.0, -5.37, -8.18, -8.31, -11.09, -12.87, -13.86, -13.86, -12.79, -11.44, -10.12, -10.12, -8.31, -8.31, -8.31, -11.09, -13.7, -16.31, -12.89, -12.89, -12.89, -12.89, -12.89, -12.89, -13.27, -13.27, -12.65, -12.65, -12.65, -12.65, -12.26, -11.95, -11.95, -11.95, -11.95, -11.6, -11.6, -11.6, -10.43, -10.43, -10.43, -9.97, -9.67, -9.67, -9.16, -8.87, -8.45, -7.89, -7.89, -7.63, -7.03, -6.15, -5.43, -5.25, -5.25, -4.81, -4.99, -4.99, -5.2, -5.2, -4.8, -3.77, -2.47, -3.11, -4.31, -4.87, -4.87, -3.87, -4.12, -3.78, -3.88, -3.49, -2.97, -1.94, 0.0, 0.0, 0.0, 0.0, 0.0, 0.0, 0.0, 0.0, 0.0, 0.0, 0.0, -1.28, -1.33, -1.39, 0.0, 0.0, 0.0, 0.0, 0.0, 0.0, -1.54, -3.16, -2.94, 0.0, -7.6, -8.93, -8.68, -11.8, -11.88, -13.32, -14.6, -14.75, -13.99, -12.65, -11.52, -10.12, -10.12, -10.12, -9.8, -9.8, -11.09, -13.7, -12.89, -12.89, -12.89, -12.89, -12.89, -12.89, -12.89, -12.65, -12.65, -12.65, -12.65, -12.65, -12.65, -12.37, -12.37, -12.37, -11.95, -11.6, -11.6, -11.6, -11.26, -10.43, -10.43, -10.43, -9.67, -9.67, -9.67, -8.87, -8.87, -8.87, -7.63, -7.63, -7.63, -6.79, -6.15, -5.93, -5.25, -5.6, -5.78, -5.78, -5.98, -5.0, -5.0, -4.6, -3.39, -2.89, -4.31, -5.18, -4.96, -4.96, -4.71, -4.71, -5.46, -4.56, -2.97, -1.04, 0.0, 0.0, 0.0, 0.0, 0.0, 0.0, 0.0, 0.0, 0.0, -1.69, -1.22, -1.28, 0.0, 0.0, 0.0, 0.0, 0.0, 0.0, 0.0, 2.39, 0.0, -4.42, -13.59, -0.0, -4.52, -4.66, -8.18, -11.44, -12.87, -13.75, -15.08, -15.2, -15.05, -14.61, -12.27, -11.52, -11.17, -11.44, -11.09, -11.09, -11.09, -11.09, -12.51, -12.51, -12.51, -12.51, -12.51, -12.51, -12.89, -12.65, -12.65, -12.65, -12.65, -12.65, -12.37, -12.37, -12.37, -12.37, -12.37, -12.05, -11.26, -11.26, -11.26, -11.26, -10.43, -10.12, -10.12, -9.67, -9.36, -9.36, -8.87, -8.87, -8.59, -8.05, -7.38, -6.79, -6.79, -6.15, -5.93, -6.31, -5.4, -5.57, -5.57, -5.75, -5.75, -5.95, -5.29, -4.15, -3.61, -3.88, -4.2, -4.78, -5.46, -5.46, -4.78, -3.99, -1.84, 0.0, 0.0, 0.0, 0.0, 0.0, 0.0, -1.14, 0.0, 0.0, 0.0, 0.0, -1.22, 0.0, 0.0, 0.0, 0.0, 0.0, -1.98, -2.06, 0.0, 0.0, 0.0, -27.14, -8.68, -0.0, -0.0, -3.47, -6.2, -9.48, -12.87, -13.75, -15.08, -15.2, -15.65, -15.53, -13.97, -12.65, -11.17, -12.27, -13.28, -11.88, -11.88, -11.88, -12.86, -12.86, -12.86, -12.86, -12.86, -12.51, -12.27, -12.65, -12.65, -12.65, -12.65, -12.65, -12.37, -12.37, -12.37, -12.37, -12.37, -12.05, -11.69, -11.26, -11.26, -11.26, -10.92, -10.54, -10.12, -10.12, -9.8, -9.36, -9.36, -8.59, -8.59, -8.59, -7.78, -7.78, -7.19, -7.19, -6.53, -6.31, -6.48, -6.48, -6.24, -5.75, -5.75, -5.75, -6.0, -4.5, -2.89, -2.28, -2.47, -2.7, -3.81, -3.81, -3.65, -1.93, 0.0, 0.0, 0.0, 0.0, 0.0, 0.0, 0.0, -1.0, -1.0, 0.0, 0.0, 0.0, 0.0, 0.0, 1.45, 1.39, 1.39, 0.0, -1.91, -2.71, -4.24, -2.65, -5.31, -27.52, -4.92, -0.0, -0.0, -4.12, -7.2, -11.7, -14.39, -15.34, -14.6, -15.2, -15.65, -15.55, -14.75, -13.2, -12.27, -12.27, -13.15, -13.15, -13.15, -13.15, -12.86, -12.86, -12.86, -12.86, -12.86, -12.86, -12.65, -12.65, -12.65, -12.65, -12.27, -12.27, -12.0, -12.37, -12.37, -12.37, -12.37, -11.69, -11.69, -11.69, -11.26, -11.26, -10.92, -10.92, -10.54, -10.12, -9.8, -9.8, -9.36, -9.06, -8.59, -8.59, -8.3, -7.78, -7.78, -7.19, -7.19, -7.36, -6.48, -6.48, -6.24, -6.67, -5.75, -5.52, -5.14, -4.8, -3.69, -2.21, -1.43, -1.54, -1.54, -1.54, -1.54, -0.85, 0.0, 0.0, 0.0, 0.0, 0.0, 0.0, 0.0, -1.0, -1.0, 0.0, 0.0, 0.0, 1.69, 1.76, 4.05, 2.6, 1.33, 0.0, -2.33, -3.68, -5.27, -4.52, -4.67, -21.59, -7.81, -0.0, -0.0, -4.65, -10.0, -14.22, -15.99, -15.78, -14.75, -14.75, -15.65, -15.65, -15.08, -13.56, -12.27, -12.27, -13.57, -13.15, -13.15, -13.15, -12.86, -12.86, -12.86, -12.86, -12.86, -12.65, -12.65, -12.65, -12.65, -12.65, -12.65, -12.0, -12.0, -12.0, -12.0, -12.0, -12.0, -11.69, -11.69, -11.69, -11.69, -10.92, -10.92, -10.92, -10.92, -10.54, -9.8, -9.8, -9.8, -9.06, -9.06, -8.59, -8.3, -8.3, -7.78, -7.51, -6.94, -7.36, -7.36, -7.1, -6.84, -6.67, -6.41, -5.52, -5.14, -4.8, -3.69, -2.89, -2.21, -2.11, -1.43, -1.43, -0.78, -0.78, 0.0, 0.0, 0.0, 0.0, 0.0, 0.0, -1.0, -1.0, -1.0, -0.84, 0.0, 1.93, 2.02, 2.7, 4.05, 2.82, 0.0, -1.22, -2.49, -3.53, -3.82, -3.73, -2.89, -1.82, 0.0, 0.0, -0.0, -7.16, -11.4, -15.17, -16.39, -16.66, -16.09, -14.75, -15.2, -14.75, -15.2, -12.33, -11.53, -11.88, -13.15, -13.72, -13.72, -13.72, -12.86, -12.86, -12.86, -12.86, -12.86, -12.65, -12.65, -12.65, -12.65, -12.65, -12.65, -12.41, -12.0, -12.0, -12.0, -12.0, -12.0, -12.0, -11.69, -11.69, -11.34, -11.34, -10.92, -10.92, -10.92, -10.92, -10.58, -9.8, -9.8, -9.48, -9.06, -9.06, -8.3, -8.3, -8.3, -7.51, -7.93, -7.36, -7.36, -7.1, -7.26, -6.67, -6.41, -5.52, -5.14, -4.92, -4.6, -3.95, -3.02, -2.21, -2.21, -1.43, -1.54, -0.85, -0.93, 0.0, 0.0, 0.0, -1.11, -1.05, -1.0, -0.94, -0.94, -0.94, 0.0, 0.0, 0.0, 0.0, 0.0, 0.0, 0.0, -1.22, -2.49, -2.42, -2.62, -2.54, -1.3, -1.3, 0.0, 1.96, 6.29, -0.0, -17.11, -16.12, -17.19, -17.53, -16.99, -16.54, -14.75, -14.75, -14.3, -12.46, -11.16, -10.47, -11.99, -13.23, -13.23, -13.23, -12.86, -12.86, -12.86, -12.86, -12.47, -12.27, -12.65, -12.65, -12.65, -12.65, -12.65, -12.41, -12.41, -12.0, -12.0, -12.0, -12.0, -12.0, -12.0, -11.69, -11.34, -11.34, -10.92, -10.92, -10.92, -10.58, -10.58, -10.58, -9.8, -9.48, -9.06, -9.06, -9.17, -8.72, -8.72, -8.42, -7.93, -7.93, -8.37, -8.07, -7.26, -7.26, -6.67, -6.41, -5.14, -4.92, -4.25, -3.95, -3.25, -3.25, -2.39, -2.39, -1.76, -0.93, -0.99, -1.11, -1.11, -1.11, -1.11, -1.05, -1.05, -1.0, -0.94, -0.94, 0.0, 0.0, 0.0, 0.0, 0.0, -1.33, -1.16, -1.22, -1.33, -1.28, -1.38, -1.29, -1.38, -1.34, 0.0, 1.41, 3.6, 0.0, -21.18, -18.97, -19.99, -18.41, -16.76, -16.09, -15.65, -13.86, -13.86, -13.28, -11.92, -10.79, -10.79, -12.3, -12.3, -12.3, -12.86, -12.86, -12.86, -12.47, -12.47, -12.27, -12.27, -12.65, -12.65, -12.65, -12.41, -12.41, -12.41, -12.41, -12.41, -12.0, -12.0, -12.0, -12.0, -11.64, -11.64, -11.34, -11.34, -10.92, -10.92, -10.58, -10.58, -10.58, -10.58, -9.89, -9.89, -9.48, -9.17, -9.17, -8.72, -8.42, -8.42, -8.07, -8.07, -8.07, -7.78, -7.26, -6.67, -6.41, -5.52, -4.92, -4.25, -4.25, -3.25, -3.25, -2.49, -2.71, -1.76, -1.93, -1.04, -1.11, -1.11, -1.11, -1.11, -1.05, -1.05, -1.0, -0.94, -1.01, 0.0, 0.0, 0.0, 0.0, 0.0, 0.0, 0.0, -1.28, -1.39, -1.28, -1.33, -1.25, -1.33, 0.0, 0.0, 0.0, 1.62, 0.0, -12.19, -23.06, -21.99, -20.16, -17.2, -15.65, -13.86, -13.41, -13.41, -12.83, -12.46, -10.79, -9.96, -10.79, -10.79, -10.79, -12.86, -12.86, -12.47, -12.47, -12.47, -12.27, -12.27, -12.65, -12.65, -12.65, -12.65, -12.41, -12.41, -12.41, -12.41, -12.41, -11.64, -11.64, -11.64, -11.64, -11.64, -11.64, -11.64, -11.64, -10.58, -10.58, -10.58, -10.58, -10.58, -10.24, -9.89, -9.89, -9.17, -9.17, -8.85, -8.42, -8.85, -8.53, -8.53, -8.07, -8.07, -7.26, -6.67, -6.41, -5.75, -5.14, -4.25, -4.25, -3.51, -3.51, -2.71, -2.71, -2.02, -1.93, -2.04, -1.16, -1.11, -1.11, -1.05, -1.05, -1.05, -1.0, -0.94, -1.07, -1.01, -1.4, 0.0, 0.0, 0.0, 0.0, 0.0, -1.09, -1.18, -1.23, -1.33, -1.38, 0.0, 0.0, 0.0, 0.0, 0.0, 0.0, -3.67, -27.72, -24.29, -21.04, -14.55, -13.86, -12.96, -12.52, -12.07, -12.07, -11.95, -11.09, -10.04, -10.41, -10.41, -10.41, -12.47, -12.47, -12.47, -12.47, -12.47, -12.27, -12.27, -12.65, -12.65, -12.65, -12.65, -12.41, -12.41, -12.41, -12.41, -12.03, -12.03, -12.03, -11.64, -11.64, -11.64, -11.64, -11.64, -11.28, -10.9, -10.9, -10.58, -10.58, -10.58, -10.24, -9.89, -9.89, -9.56, -9.17, -8.85, -9.26, -8.53, -8.53, -8.97, -8.97, -8.53, -7.72, -7.26, -6.41, -5.75, -5.52, -4.8, -4.25, -3.51, -3.51, -2.59, -2.83, -2.83, -2.13, -2.13, -1.16, -1.11, -1.11, -1.05, -1.05, -1.05, -1.0, -1.0, -1.07, -1.96, -1.47, 0.0, 0.0, 0.0, 0.0, 0.0, -1.09, -2.13, -2.33, -1.28, -1.38, -1.43, 0.0, 0.0, 0.0, 0.0, 0.0, -2.02, -13.14, -26.02, -18.41, -15.2, -13.41, -11.62, -12.07, -11.62, -10.73, -11.09, -11.18, -10.68, -10.48, -10.48, -10.48, -12.47, -12.79, -12.79, -12.79, -12.79, -12.79, -12.62, -12.62, -12.65, -12.65, -12.65, -12.65, -12.03, -12.41, -12.41, -12.03, -12.03, -12.03, -12.03, -11.64, -11.64, -11.64, -11.64, -11.28, -11.28, -10.9, -10.9, -10.9, -10.24, -10.24, -10.24, -9.56, -9.56, -9.96, -9.26, -9.26, -9.34, -8.97, -8.97, -8.97, -8.22, -7.72, -7.72, -6.86, -5.75, -5.52, -4.8, -4.8, -3.82, -3.82, -2.95, -2.83, -2.83, -2.13, -2.39, -2.39, -2.28, -2.17, -2.06, -2.06, -1.95, -1.95, -1.95, -2.09, -2.09, -2.09, -1.47, 0.0, 0.0, 0.0, 0.0, 0.0, -2.39, -3.45, -3.53, -2.62, -2.72, -1.43, -1.53, -1.63, 0.0, -1.73, -1.83, -4.12, -22.23, -19.73, -16.54, -14.75, -12.52, -12.07, -12.07, -12.07, -11.51, -11.06, -10.27, -9.7, -9.7, -9.7, -12.79, -12.79, -12.79, -12.79, -12.79, -12.79, -12.62, -12.62, -13.02, -12.65, -12.65, -12.27, -12.27, -12.27, -12.03, -12.03, -12.03, -12.03, -12.03, -12.03, -11.64, -11.64, -11.28, -11.28, -11.28, -11.28, -11.28, -10.9, -10.55, -10.24, -10.63, -10.28, -9.96, -9.62, -9.62, -9.69, -9.34, -9.34, -9.34, -8.97, -8.22, -8.22, -7.42, -6.86, -6.2, -6.2, -4.8, -4.8, -3.82, -3.82, -3.82, -2.83, -3.11, -2.13, -2.39, -2.39, -2.28, -2.17, -2.17, -2.06, -1.95, -1.95, -1.95, -2.21, -2.21, -2.09, -1.54, -1.54, 0.0, 0.0, 0.0, 0.0, 0.0, -1.45, -4.8, -5.2, -4.39, -3.25, -1.66, -1.48, -1.58, -1.68, -1.78, -24.39, -20.74, -20.16, -18.33, -16.54, -14.75, -12.52, -12.52, -12.96, -12.52, -11.51, -10.75, -10.27, -10.27, -10.27, -12.79, -12.79, -12.79, -12.79, -12.79, -12.79, -12.79, -12.62, -12.62, -12.27, -12.27, -12.27, -12.27, -12.27, -12.27, -12.27, -12.27, -12.27, -12.03, -12.03, -12.03, -11.64, -11.28, -11.28, -11.28, -11.28, -11.28, -11.28, -10.91, -10.91, -10.63, -10.28, -10.28, -9.62, -9.62, -9.34, -9.34, -9.34, -9.4, -9.08, -9.08, -8.69, -7.42, -6.86, -6.2, -6.2, -5.21, -4.8, -3.82, -3.82, -3.65, -3.11, -2.13, -2.13, -2.39, -2.39, -2.28, -2.28, -2.17, -2.17, -2.06, -1.95, -2.21, -2.21, -2.21, -2.21, -2.33, -1.11, 0.0, 0.0, 0.0, 0.0, 0.0, 0.0, 1.52, -3.07, -3.32, -3.14, -1.66, -2.91, -3.36, -3.69, -7.47, -23.99, -19.67, -20.6, -18.78, -16.54, -15.2, -13.41, -12.07, -12.07, -12.07, -11.06, -10.75, -10.27, -10.27, -10.27, -12.79, -12.79, -12.79, -12.79, -12.79, -12.79, -12.79, -12.79, -12.62, -12.62, -12.27, -12.27, -12.27, -12.27, -12.27, -12.27, -12.27, -12.27, -12.27, -12.27, -12.27, -12.27, -11.53, -11.28, -11.28, -11.28, -11.28, -10.91, -10.91, -10.91, -10.55, -10.28, -10.28, -9.62, -10.01, -9.66, -9.76, -9.76, -9.4, -9.4, -9.08, -8.69, -7.9, -7.36, -6.2, -6.2, -5.21, -5.21, -4.18, -4.18, -3.99, -3.11, -2.13, -2.39, -2.39, -2.28, -2.28, -2.28, -2.17, -2.17, -2.06, -2.33, -2.21, -2.21, -2.21, -2.21, -2.33, -1.2, 0.0, 0.0, 0.0, 0.0, 0.0, 1.28, 2.6, 1.28, 0.0, -1.77, -1.61, -3.25, -3.25, -4.05, -11.27, -27.72, -20.03, -19.95, -16.99, -15.2, -13.86, -12.07, -11.18, -11.18, -12.07, -11.95, -11.46, -10.75, -10.75, -10.75, -12.79, -12.79, -12.79, -12.79, -12.79, -12.79, -12.79, -12.79, -12.79, -12.79, -12.27, -12.27, -12.27, -12.27, -12.27, -12.27, -12.27, -12.27, -12.27, -12.27, -12.27, -12.27, -11.88, -11.53, -11.53, -11.53, -11.28, -10.91, -10.91, -10.91, -10.55, -10.55, -10.28, -10.29, -10.01, -9.66, -10.04, -9.67, -9.4, -9.4, -9.08, -8.69, -7.9, -7.36, -6.71, -6.44, -5.21, -4.99, -4.18, -4.18, -3.11, -3.11, -2.13, -2.28, -2.28, -2.28, -2.28, -2.28, -2.28, -2.17, -2.33, -2.33, -2.21, -2.21, -2.21, -2.21, -2.21, -1.2, -1.2, 0.0, 0.0, 0.0, 0.0, 0.0, 0.0, 0.0, 0.0, 0.0, -3.44, -3.56, -5.28, -7.0, -11.27, -22.35, -25.99, -20.39, -17.1, -15.2, -11.62, -9.83, -11.18, -12.07, -12.52, -12.07, -11.91, -11.45, -11.45, -11.45, -12.39, -12.39, -12.79, -12.79, -12.79, -12.79, -12.79, -12.79, -12.79, -12.79, -12.47, -12.27, -12.27, -12.27, -12.27, -12.27, -12.27, -12.27, -12.27, -12.27, -12.27, -12.27, -12.27, -11.88, -11.53, -11.53, -11.16, -11.16, -10.91, -10.91, -10.55, -10.9, -10.53, -10.29, -10.01, -10.04, -10.04, -9.67, -9.67, -9.4, -9.08, -9.17, -8.41, -7.36, -6.71, -6.44, -5.69, -5.45, -4.18, -4.18, -3.11, -2.13, -2.39, -2.28, -2.28, -2.28, -2.28, -2.28, -2.28, -2.46, -2.46, -2.33, -2.33, -2.21, -2.54, -2.54, -1.32, -1.4, -1.2, 0.0, 0.0, -1.45, 0.0, 0.0, 0.0, 0.0, -2.7, -1.52, -4.58, -4.93, -6.0, -6.6, -8.97, -19.22, -19.91, -22.79, -18.85, -16.99, -13.41, -11.62, -12.07, -12.52, -12.96, -13.41, -12.79, -12.3, -12.3, -12.3, -12.39, -12.39, -13.11, -12.79, -12.79, -12.79, -12.79, -12.79, -12.79, -12.79, -12.79, -12.47, -12.47, -12.27, -12.27, -12.27, -12.27, -12.27, -12.27, -12.27, -12.27, -11.88, -11.88, -11.88, -11.88, -11.53, -11.53, -11.16, -11.16, -11.12, -10.9, -10.9, -10.53, -10.29, -10.66, -10.04, -10.04, -10.04, -10.04, -9.81, -9.52, -9.17, -8.41, -7.9, -6.44, -6.44, -5.69, -5.45, -4.6, -4.4, -3.45, -2.39, -2.39, -2.28, -2.28, -2.28, -2.28, -2.28, -2.46, -2.46, -2.46, -2.33, -2.33, -2.54, -2.54, -2.54, -1.4, -1.4, -1.4, -1.69, -1.69, -1.45, 0.0, 0.0, 0.0, -1.39, -1.39, -2.7, -5.95, -5.6, -6.0, -4.52, -5.23, -10.41, -17.7, -21.81, -18.79, -18.78, -15.2, -12.07, -11.91, -12.96, -13.86, -13.86, -13.23, -12.79, -12.79, -12.79, -12.7, -12.7, -12.7, -12.7, -13.11, -12.79, -12.79, -12.79, -12.79, -12.79, -12.79, -12.47, -12.47, -12.47, -12.47, -12.08, -12.08, -12.08, -12.47, -12.47, -12.47, -11.88, -11.88, -11.88, -11.88, -11.88, -11.88, -11.5, -11.5, -11.12, -11.12, -10.9, -10.53, -10.66, -10.66, -10.28, -10.04, -10.43, -9.81, -9.81, -9.52, -9.17, -8.41, -7.9, -6.98, -6.44, -5.69, -4.6, -4.6, -3.45, -3.45, -2.39, -2.39, -2.28, -2.28, -2.28, -2.28, -2.46, -2.46, -2.46, -2.46, -2.33, -2.33, -2.54, -2.54, -2.99, -3.15, -2.69, -2.69, -2.46, -1.11, -1.52, 0.0, 0.0, 0.0, 0.0, 0.0, 0.0, -1.52, -3.32, -3.56, -2.02, -4.42, -3.59, -25.03, -18.97, -19.59, -19.29, -16.99, -14.3, -12.35, -12.79, -13.23, -13.86, -13.41, -12.79, -12.79, -12.79, -12.7, -12.7, -12.7, -12.7, -12.7, -12.7, -12.7, -12.39, -12.39, -12.39, -12.39, -12.39, -12.08, -12.08, -12.08, -12.08, -12.08, -12.08, -12.08, -12.08, -12.08, -12.08, -12.08, -11.88, -11.88, -11.88, -11.88, -11.5, -11.5, -11.12, -11.12, -10.9, -10.53, -10.87, -10.66, -10.63, -10.63, -10.43, -10.18, -9.52, -9.97, -9.3, -8.41, -7.9, -6.98, -6.98, -5.98, -4.6, -4.4, -3.45, -3.45, -2.39, -2.28, -2.28, -2.28, -2.28, -2.17, -2.46, -2.46, -2.46, -2.46, -2.33, -2.69, -2.69, -2.69, -3.15, -3.15, -2.69, -2.69, -3.52, -2.28, -1.58, 0.0, 0.0, 0.0, 0.0, 0.0, 0.0, 0.0, -1.64, -1.77, -3.93, -3.79, -4.91, -20.79, -18.33, -20.79, -19.08, -17.43, -15.65, -14.55, -12.79, -12.79, -12.79, -13.28, -12.83, -12.83, -12.83, -12.7, -12.7, -12.7, -12.7, -12.7, -12.7, -12.7, -12.39, -12.39, -12.39, -12.39, -12.39, -12.08, -12.08, -12.08, -12.08, -12.08, -12.08, -12.08, -12.08, -12.08, -12.08, -12.08, -12.08, -12.08, -12.08, -12.08, -11.5, -11.5, -11.5, -11.12, -11.44, -11.26, -10.87, -10.66, -11.02, -10.63, -10.43, -10.6, -9.97, -9.67, -9.3, -8.94, -7.59, -6.98, -6.24, -5.98, -5.1, -4.4, -3.45, -2.39, -2.39, -2.28, -2.28, -2.28, -2.28, -2.17, -2.46, -2.46, -2.46, -2.46, -2.33, -2.69, -2.69, -2.69, -3.15, -3.15, -3.8, -4.0, -3.52, -3.52, -2.28, -1.11, 0.0, 0.0, 0.0, 0.0, -1.45, -1.76, -3.68, -5.6, -3.81, -5.99, -4.67, -11.16, -21.95, -19.67, -21.25, -17.88, -16.54, -16.54, -14.47, -12.79, -13.23, -13.28, -13.67, -13.67, -13.67, -12.7, -12.7, -12.7, -12.7, -12.7, -12.7, -12.7, -12.39, -12.39, -12.39, -12.39, -12.39, -12.08, -12.08, -12.08, -12.08, -12.08, -12.08, -12.08, -12.08, -12.08, -12.08, -12.08, -12.08, -12.08, -12.08, -12.08, -11.5, -11.5, -11.5, -11.12, -11.44, -11.26, -10.87, -10.66, -11.02, -10.63, -10.43, -10.6, -9.97, -9.67, -9.3, -8.94, -7.59, -6.98, -6.24, -5.98, -5.1, -4.4, -3.45, -2.39, -2.39, -2.28, -2.28, -2.28, -2.28, -2.17, -2.46, -2.46, -2.46, -2.46, -2.33, -2.69, -2.69, -2.69, -3.15, -3.15, -3.8, -4.0, -3.52, -3.52, -2.28, -1.11, 0.0, 0.0, 0.0, -1.45, -1.45, -1.76, -3.68, -5.6, -5.28, -5.81, -4.42, -6.47, -22.8, -18.95, -20.79, -21.46, -18.33, -18.33, -17.43, -15.78, -13.67, -13.67, -14.11, -14.11, -14.11]}]